Wetterdaten: Montag, 09.02.2026
Datum Zeit Temp. Aussen Temp. o. S. Temp +5cm Feuchte Auss Luftdruck Regen Sonnenschein Regendauer Solar Windböen Empfang
09.02.2026 00:00 3,0 °C 2,2 °C -0,6 °C 96 % 1009,3 hPa 0,0 l/m² 0 min 0 min 0 W/m² 16,1 km/h (3 Bft) 100,00 %
09.02.2026 00:02 3,0 °C 2,2 °C -0,6 °C 96 % 1009,3 hPa 0,0 l/m² 0 min 0 min 0 W/m² 12,9 km/h (3 Bft) 100,00 %
09.02.2026 00:04 2,9 °C 2,2 °C -0,6 °C 96 % 1009,3 hPa 0,0 l/m² 0 min 0 min 0 W/m² 6,4 km/h (2 Bft) 100,00 %
09.02.2026 00:07 2,9 °C 2,2 °C -1,1 °C 96 % 1009,3 hPa 0,0 l/m² 0 min 0 min 0 W/m² 6,4 km/h (2 Bft) 98,36 %
09.02.2026 00:08 2,9 °C 2,2 °C -0,6 °C 96 % 1009,3 hPa 0,0 l/m² 0 min 0 min 0 W/m² 6,4 km/h (2 Bft) 100,00 %
09.02.2026 00:10 2,9 °C 2,2 °C -1,1 °C 96 % 1009,2 hPa 0,0 l/m² 0 min 0 min 0 W/m² 9,7 km/h (2 Bft) 100,00 %
09.02.2026 00:12 2,9 °C 2,2 °C -1,1 °C 96 % 1009,3 hPa 0,0 l/m² 0 min 0 min 0 W/m² 6,4 km/h (2 Bft) 100,00 %
09.02.2026 00:14 2,9 °C 2,2 °C -1,1 °C 96 % 1009,2 hPa 0,0 l/m² 0 min 0 min 0 W/m² 6,4 km/h (2 Bft) 100,00 %
09.02.2026 00:16 2,9 °C 2,2 °C -1,1 °C 96 % 1009,3 hPa 0,0 l/m² 0 min 0 min 0 W/m² 16,1 km/h (3 Bft) 100,00 %
09.02.2026 00:18 2,9 °C 2,2 °C -1,1 °C 96 % 1009,3 hPa 0,0 l/m² 0 min 0 min 0 W/m² 12,9 km/h (3 Bft) 100,00 %
09.02.2026 00:20 2,9 °C 2,2 °C -1,1 °C 96 % 1009,3 hPa 0,0 l/m² 0 min 0 min 0 W/m² 6,4 km/h (2 Bft) 100,00 %
09.02.2026 00:22 2,9 °C 2,2 °C -1,1 °C 96 % 1009,3 hPa 0,0 l/m² 0 min 0 min 0 W/m² 12,9 km/h (3 Bft) 97,87 %
09.02.2026 00:24 2,9 °C 2,2 °C -1,1 °C 96 % 1009,2 hPa 0,0 l/m² 0 min 0 min 0 W/m² 6,4 km/h (2 Bft) 97,87 %
09.02.2026 00:26 2,9 °C 2,2 °C -1,1 °C 96 % 1009,3 hPa 0,0 l/m² 0 min 0 min 0 W/m² 16,1 km/h (3 Bft) 95,74 %
09.02.2026 00:28 2,9 °C 2,2 °C -1,1 °C 96 % 1009,2 hPa 0,0 l/m² 0 min 0 min 0 W/m² 12,9 km/h (3 Bft) 100,00 %
09.02.2026 00:30 2,9 °C 2,2 °C -1,1 °C 96 % 1009,2 hPa 0,0 l/m² 0 min 0 min 0 W/m² 12,9 km/h (3 Bft) 97,87 %
09.02.2026 00:32 2,9 °C 2,2 °C -1,1 °C 96 % 1009,2 hPa 0,0 l/m² 0 min 0 min 0 W/m² 6,4 km/h (2 Bft) 100,00 %
09.02.2026 00:34 2,9 °C 2,2 °C -1,1 °C 96 % 1009,3 hPa 0,0 l/m² 0 min 0 min 0 W/m² 3,2 km/h (1 Bft) 100,00 %
09.02.2026 00:36 2,8 °C 2,2 °C -1,1 °C 96 % 1009,2 hPa 0,0 l/m² 0 min 0 min 0 W/m² 6,4 km/h (2 Bft) 97,87 %
09.02.2026 00:38 2,8 °C 1,7 °C -1,1 °C 96 % 1009,2 hPa 0,0 l/m² 0 min 0 min 0 W/m² 6,4 km/h (2 Bft) 100,00 %
09.02.2026 00:40 2,8 °C 1,7 °C -1,1 °C 96 % 1009,2 hPa 0,0 l/m² 0 min 0 min 0 W/m² 6,4 km/h (2 Bft) 93,48 %
09.02.2026 00:42 2,8 °C 1,7 °C -1,1 °C 96 % 1009,2 hPa 0,0 l/m² 0 min 0 min 0 W/m² 3,2 km/h (1 Bft) 97,87 %
09.02.2026 00:44 2,7 °C 1,7 °C -1,1 °C 96 % 1009,2 hPa 0,0 l/m² 0 min 0 min 0 W/m² 0,0 km/h (0 Bft) 95,74 %
09.02.2026 00:46 2,7 °C 1,7 °C -1,1 °C 96 % 1009,2 hPa 0,0 l/m² 0 min 0 min 0 W/m² 9,7 km/h (2 Bft) 95,74 %
09.02.2026 00:48 2,7 °C 1,7 °C -1,1 °C 96 % 1009,2 hPa 0,0 l/m² 0 min 0 min 0 W/m² 6,4 km/h (2 Bft) 97,87 %
09.02.2026 00:50 2,7 °C 1,7 °C -1,1 °C 96 % 1009,2 hPa 0,0 l/m² 0 min 0 min 0 W/m² 6,4 km/h (2 Bft) 97,87 %
09.02.2026 00:52 2,7 °C 1,7 °C -1,1 °C 96 % 1009,1 hPa 0,0 l/m² 0 min 0 min 0 W/m² 6,4 km/h (2 Bft) 97,87 %
09.02.2026 00:54 2,6 °C 1,7 °C -1,1 °C 96 % 1009,2 hPa 0,0 l/m² 0 min 0 min 0 W/m² 6,4 km/h (2 Bft) 95,74 %
09.02.2026 00:56 2,6 °C 1,7 °C -1,1 °C 96 % 1009,2 hPa 0,0 l/m² 0 min 0 min 0 W/m² 9,7 km/h (2 Bft) 95,74 %
09.02.2026 00:58 2,6 °C 1,7 °C -1,1 °C 96 % 1009,1 hPa 0,0 l/m² 0 min 0 min 0 W/m² 12,9 km/h (3 Bft) 97,87 %
09.02.2026 01:00 2,6 °C 1,7 °C -1,1 °C 96 % 1009,1 hPa 0,0 l/m² 0 min 0 min 0 W/m² 6,4 km/h (2 Bft) 97,87 %
09.02.2026 01:02 2,6 °C 1,7 °C -1,1 °C 96 % 1009,0 hPa 0,0 l/m² 0 min 0 min 0 W/m² 12,9 km/h (3 Bft) 93,62 %
09.02.2026 01:04 2,6 °C 1,7 °C -1,1 °C 96 % 1009,0 hPa 0,0 l/m² 0 min 0 min 0 W/m² 12,9 km/h (3 Bft) 97,83 %
09.02.2026 01:06 2,6 °C 1,7 °C -1,1 °C 96 % 1009,0 hPa 0,0 l/m² 0 min 0 min 0 W/m² 6,4 km/h (2 Bft) 97,87 %
09.02.2026 01:08 2,6 °C 1,7 °C -1,1 °C 96 % 1009,0 hPa 0,0 l/m² 0 min 0 min 0 W/m² 12,9 km/h (3 Bft) 97,92 %
09.02.2026 01:10 2,6 °C 1,7 °C -1,1 °C 96 % 1009,0 hPa 0,0 l/m² 0 min 0 min 0 W/m² 12,9 km/h (3 Bft) 95,65 %
09.02.2026 01:12 2,5 °C 1,7 °C -1,1 °C 96 % 1009,0 hPa 0,0 l/m² 0 min 0 min 0 W/m² 9,7 km/h (2 Bft) 93,62 %
09.02.2026 01:14 2,5 °C 1,7 °C -1,1 °C 96 % 1009,0 hPa 0,0 l/m² 0 min 0 min 0 W/m² 6,4 km/h (2 Bft) 95,74 %
09.02.2026 01:16 2,5 °C 1,7 °C -1,1 °C 96 % 1009,0 hPa 0,0 l/m² 0 min 0 min 0 W/m² 6,4 km/h (2 Bft) 95,74 %
09.02.2026 01:18 2,4 °C 1,7 °C -1,7 °C 96 % 1009,0 hPa 0,0 l/m² 0 min 0 min 0 W/m² 12,9 km/h (3 Bft) 93,62 %
09.02.2026 01:20 2,4 °C 1,7 °C -1,7 °C 96 % 1008,9 hPa 0,0 l/m² 0 min 0 min 0 W/m² 6,4 km/h (2 Bft) 95,74 %
09.02.2026 01:22 2,4 °C 1,7 °C -1,7 °C 96 % 1008,9 hPa 0,0 l/m² 0 min 0 min 0 W/m² 6,4 km/h (2 Bft) 93,62 %
09.02.2026 01:24 2,4 °C 1,7 °C -1,7 °C 96 % 1008,9 hPa 0,0 l/m² 0 min 0 min 0 W/m² 16,1 km/h (3 Bft) 95,74 %
09.02.2026 01:26 2,4 °C 1,7 °C -1,7 °C 96 % 1008,9 hPa 0,0 l/m² 0 min 0 min 0 W/m² 12,9 km/h (3 Bft) 97,87 %
09.02.2026 01:28 2,4 °C 1,7 °C -1,7 °C 96 % 1008,9 hPa 0,0 l/m² 0 min 0 min 0 W/m² 6,4 km/h (2 Bft) 97,87 %
09.02.2026 01:30 2,4 °C 1,1 °C -1,7 °C 96 % 1008,9 hPa 0,0 l/m² 0 min 0 min 0 W/m² 6,4 km/h (2 Bft) 97,83 %
09.02.2026 01:32 2,4 °C 1,1 °C -1,7 °C 96 % 1008,9 hPa 0,0 l/m² 0 min 0 min 0 W/m² 6,4 km/h (2 Bft) 95,74 %
09.02.2026 01:34 2,3 °C 1,1 °C -1,7 °C 96 % 1008,9 hPa 0,0 l/m² 0 min 0 min 0 W/m² 6,4 km/h (2 Bft) 97,87 %
09.02.2026 01:36 2,3 °C 1,1 °C -1,7 °C 96 % 1008,9 hPa 0,0 l/m² 0 min 0 min 0 W/m² 6,4 km/h (2 Bft) 97,87 %
09.02.2026 01:38 2,3 °C 1,1 °C -1,7 °C 96 % 1008,9 hPa 0,0 l/m² 0 min 0 min 0 W/m² 6,4 km/h (2 Bft) 97,87 %
09.02.2026 01:40 2,3 °C 1,1 °C -1,7 °C 96 % 1008,9 hPa 0,0 l/m² 0 min 0 min 0 W/m² 6,4 km/h (2 Bft) 97,87 %
09.02.2026 01:42 2,3 °C 1,1 °C -1,7 °C 96 % 1008,9 hPa 0,0 l/m² 0 min 0 min 0 W/m² 6,4 km/h (2 Bft) 100,00 %
09.02.2026 01:44 2,3 °C 1,1 °C -1,7 °C 96 % 1008,9 hPa 0,0 l/m² 0 min 0 min 0 W/m² 12,9 km/h (3 Bft) 100,00 %
09.02.2026 01:46 2,3 °C 1,1 °C -1,7 °C 96 % 1009,0 hPa 0,0 l/m² 0 min 0 min 0 W/m² 6,4 km/h (2 Bft) 100,00 %
09.02.2026 01:48 2,3 °C 1,1 °C -1,7 °C 96 % 1009,0 hPa 0,0 l/m² 0 min 0 min 0 W/m² 6,4 km/h (2 Bft) 100,00 %
09.02.2026 01:50 2,3 °C 1,1 °C -1,7 °C 96 % 1008,9 hPa 0,0 l/m² 0 min 0 min 0 W/m² 12,9 km/h (3 Bft) 97,87 %
09.02.2026 01:52 2,2 °C 1,1 °C -1,7 °C 96 % 1008,9 hPa 0,0 l/m² 0 min 0 min 0 W/m² 6,4 km/h (2 Bft) 97,87 %
09.02.2026 01:54 2,2 °C 1,1 °C -1,7 °C 96 % 1008,9 hPa 0,0 l/m² 0 min 0 min 0 W/m² 6,4 km/h (2 Bft) 100,00 %
09.02.2026 01:56 2,2 °C 1,1 °C -1,7 °C 96 % 1008,9 hPa 0,0 l/m² 0 min 0 min 0 W/m² 16,1 km/h (3 Bft) 100,00 %
09.02.2026 01:58 2,2 °C 1,1 °C -1,7 °C 96 % 1008,9 hPa 0,0 l/m² 0 min 0 min 0 W/m² 12,9 km/h (3 Bft) 100,00 %
09.02.2026 02:00 2,2 °C 1,1 °C -1,7 °C 96 % 1008,8 hPa 0,0 l/m² 0 min 0 min 0 W/m² 12,9 km/h (3 Bft) 97,87 %
09.02.2026 02:02 2,2 °C 1,1 °C -1,7 °C 96 % 1008,8 hPa 0,0 l/m² 0 min 0 min 0 W/m² 6,4 km/h (2 Bft) 100,00 %
09.02.2026 02:04 2,2 °C 1,1 °C -1,7 °C 96 % 1008,8 hPa 0,0 l/m² 0 min 0 min 0 W/m² 12,9 km/h (3 Bft) 100,00 %
09.02.2026 02:06 2,2 °C 1,1 °C -1,7 °C 96 % 1008,8 hPa 0,0 l/m² 0 min 0 min 0 W/m² 16,1 km/h (3 Bft) 97,87 %
09.02.2026 02:08 2,2 °C 1,1 °C -1,7 °C 96 % 1008,7 hPa 0,0 l/m² 0 min 0 min 0 W/m² 6,4 km/h (2 Bft) 97,92 %
09.02.2026 02:10 2,2 °C 1,1 °C -1,7 °C 96 % 1008,7 hPa 0,0 l/m² 0 min 0 min 0 W/m² 6,4 km/h (2 Bft) 95,74 %
09.02.2026 02:12 2,2 °C 1,1 °C -1,7 °C 96 % 1008,7 hPa 0,0 l/m² 0 min 0 min 0 W/m² 12,9 km/h (3 Bft) 95,74 %
09.02.2026 02:14 2,1 °C 1,1 °C -1,7 °C 96 % 1008,7 hPa 0,0 l/m² 0 min 0 min 0 W/m² 6,4 km/h (2 Bft) 97,37 %
09.02.2026 02:16 2,1 °C 1,1 °C -1,7 °C 96 % 1008,7 hPa 0,0 l/m² 0 min 0 min 0 W/m² 16,1 km/h (3 Bft) 98,00 %
09.02.2026 02:18 2,1 °C 1,1 °C -1,7 °C 96 % 1008,7 hPa 0,0 l/m² 0 min 0 min 0 W/m² 12,9 km/h (3 Bft) 97,87 %
09.02.2026 02:20 2,1 °C 1,1 °C -1,7 °C 96 % 1008,7 hPa 0,0 l/m² 0 min 0 min 0 W/m² 6,4 km/h (2 Bft) 95,74 %
09.02.2026 02:22 2,1 °C 1,1 °C -1,7 °C 96 % 1008,7 hPa 0,0 l/m² 0 min 0 min 0 W/m² 6,4 km/h (2 Bft) 97,87 %
09.02.2026 02:24 2,1 °C 1,1 °C -1,7 °C 96 % 1008,7 hPa 0,0 l/m² 0 min 0 min 0 W/m² 12,9 km/h (3 Bft) 97,83 %
09.02.2026 02:26 2,1 °C 1,1 °C -1,7 °C 96 % 1008,6 hPa 0,0 l/m² 0 min 0 min 0 W/m² 9,7 km/h (2 Bft) 97,87 %
09.02.2026 02:28 2,2 °C 1,1 °C -1,7 °C 96 % 1008,6 hPa 0,0 l/m² 0 min 0 min 0 W/m² 9,7 km/h (2 Bft) 95,74 %
09.02.2026 02:30 2,2 °C 1,1 °C -1,7 °C 96 % 1008,5 hPa 0,0 l/m² 0 min 0 min 0 W/m² 12,9 km/h (3 Bft) 95,74 %
09.02.2026 02:32 2,2 °C 1,1 °C -1,7 °C 96 % 1008,5 hPa 0,0 l/m² 0 min 0 min 0 W/m² 12,9 km/h (3 Bft) 93,62 %
09.02.2026 02:34 2,2 °C 1,7 °C -1,7 °C 96 % 1008,5 hPa 0,0 l/m² 0 min 0 min 0 W/m² 25,7 km/h (4 Bft) 97,87 %
09.02.2026 02:36 2,2 °C 1,7 °C -1,7 °C 96 % 1008,5 hPa 0,0 l/m² 0 min 0 min 0 W/m² 12,9 km/h (3 Bft) 97,87 %
09.02.2026 02:38 2,2 °C 1,7 °C -1,7 °C 96 % 1008,5 hPa 0,0 l/m² 0 min 0 min 0 W/m² 16,1 km/h (3 Bft) 97,87 %
09.02.2026 02:40 2,2 °C 1,7 °C -1,7 °C 96 % 1008,6 hPa 0,0 l/m² 0 min 0 min 0 W/m² 12,9 km/h (3 Bft) 97,87 %
09.02.2026 02:42 2,3 °C 1,7 °C -1,7 °C 96 % 1008,6 hPa 0,0 l/m² 0 min 0 min 0 W/m² 12,9 km/h (3 Bft) 97,87 %
09.02.2026 02:44 2,2 °C 1,7 °C -1,7 °C 96 % 1008,6 hPa 0,0 l/m² 0 min 0 min 0 W/m² 16,1 km/h (3 Bft) 95,74 %
09.02.2026 02:46 2,3 °C 1,7 °C -1,7 °C 96 % 1008,6 hPa 0,0 l/m² 0 min 0 min 0 W/m² 12,9 km/h (3 Bft) 97,83 %
09.02.2026 02:48 2,3 °C 1,7 °C -1,7 °C 96 % 1008,6 hPa 0,0 l/m² 0 min 0 min 0 W/m² 12,9 km/h (3 Bft) 95,74 %
09.02.2026 02:50 2,3 °C 1,7 °C -1,7 °C 96 % 1008,5 hPa 0,0 l/m² 0 min 0 min 0 W/m² 12,9 km/h (3 Bft) 93,62 %
09.02.2026 02:52 2,3 °C 1,7 °C -1,7 °C 96 % 1008,5 hPa 0,0 l/m² 0 min 0 min 0 W/m² 12,9 km/h (3 Bft) 97,87 %
09.02.2026 02:54 2,3 °C 1,7 °C -1,7 °C 96 % 1008,5 hPa 0,0 l/m² 0 min 0 min 0 W/m² 12,9 km/h (3 Bft) 97,14 %
09.02.2026 02:56 2,3 °C 1,7 °C -1,7 °C 96 % 1008,5 hPa 0,0 l/m² 0 min 0 min 0 W/m² 12,9 km/h (3 Bft) 98,15 %
09.02.2026 02:58 2,2 °C 1,7 °C -1,7 °C 96 % 1008,4 hPa 0,0 l/m² 0 min 0 min 0 W/m² 16,1 km/h (3 Bft) 91,49 %
09.02.2026 03:00 2,2 °C 1,1 °C -1,7 °C 97 % 1008,5 hPa 0,0 l/m² 0 min 0 min 0 W/m² 12,9 km/h (3 Bft) 97,87 %
09.02.2026 03:02 2,2 °C 1,1 °C -1,7 °C 97 % 1008,4 hPa 0,0 l/m² 0 min 0 min 0 W/m² 12,9 km/h (3 Bft) 95,74 %
09.02.2026 03:04 2,2 °C 1,1 °C -1,7 °C 97 % 1008,4 hPa 0,0 l/m² 0 min 0 min 0 W/m² 16,1 km/h (3 Bft) 97,87 %
09.02.2026 03:06 2,2 °C 1,7 °C -1,7 °C 97 % 1008,3 hPa 0,0 l/m² 0 min 0 min 0 W/m² 16,1 km/h (3 Bft) 93,22 %
09.02.2026 03:08 2,2 °C 1,7 °C -1,7 °C 97 % 1008,4 hPa 0,0 l/m² 0 min 0 min 0 W/m² 16,1 km/h (3 Bft) 97,83 %
09.02.2026 03:10 2,2 °C 1,7 °C -1,7 °C 97 % 1008,3 hPa 0,0 l/m² 0 min 0 min 0 W/m² 12,9 km/h (3 Bft) 94,44 %
09.02.2026 03:12 2,2 °C 1,7 °C -1,7 °C 97 % 1008,3 hPa 0,0 l/m² 0 min 0 min 0 W/m² 12,9 km/h (3 Bft) 95,74 %
09.02.2026 03:14 2,2 °C 1,7 °C -1,7 °C 97 % 1008,3 hPa 0,0 l/m² 0 min 0 min 0 W/m² 19,3 km/h (3 Bft) 93,48 %
09.02.2026 03:16 2,2 °C 1,1 °C -1,7 °C 97 % 1008,3 hPa 0,0 l/m² 0 min 0 min 0 W/m² 19,3 km/h (3 Bft) 93,62 %
09.02.2026 03:18 2,2 °C 1,1 °C -1,7 °C 97 % 1008,3 hPa 0,0 l/m² 0 min 0 min 0 W/m² 12,9 km/h (3 Bft) 95,74 %
09.02.2026 03:20 2,2 °C 1,1 °C -1,7 °C 97 % 1008,2 hPa 0,0 l/m² 0 min 0 min 0 W/m² 6,4 km/h (2 Bft) 96,00 %
09.02.2026 03:22 2,2 °C 1,1 °C -1,7 °C 97 % 1008,2 hPa 0,0 l/m² 0 min 0 min 0 W/m² 16,1 km/h (3 Bft) 95,74 %
09.02.2026 03:24 2,2 °C 1,1 °C -1,7 °C 97 % 1008,2 hPa 0,0 l/m² 0 min 0 min 0 W/m² 19,3 km/h (3 Bft) 95,74 %
09.02.2026 03:26 2,2 °C 1,1 °C -1,7 °C 97 % 1008,2 hPa 0,0 l/m² 0 min 0 min 0 W/m² 16,1 km/h (3 Bft) 95,74 %
09.02.2026 03:28 2,1 °C 1,1 °C -1,7 °C 97 % 1008,1 hPa 0,0 l/m² 0 min 0 min 0 W/m² 12,9 km/h (3 Bft) 93,62 %
09.02.2026 03:30 2,1 °C 1,1 °C -1,7 °C 96 % 1008,2 hPa 0,0 l/m² 0 min 0 min 0 W/m² 19,3 km/h (3 Bft) 95,74 %
09.02.2026 03:32 2,1 °C 1,1 °C -1,7 °C 96 % 1008,1 hPa 0,0 l/m² 0 min 0 min 0 W/m² 16,1 km/h (3 Bft) 97,87 %
09.02.2026 03:34 2,1 °C 1,1 °C -1,7 °C 97 % 1008,1 hPa 0,0 l/m² 0 min 0 min 0 W/m² 12,9 km/h (3 Bft) 97,87 %
09.02.2026 03:36 2,1 °C 1,1 °C -1,7 °C 97 % 1008,1 hPa 0,0 l/m² 0 min 0 min 0 W/m² 16,1 km/h (3 Bft) 97,83 %
09.02.2026 03:38 2,1 °C 1,1 °C -1,7 °C 97 % 1008,0 hPa 0,0 l/m² 0 min 0 min 0 W/m² 12,9 km/h (3 Bft) 95,74 %
09.02.2026 03:40 2,1 °C 1,1 °C -1,7 °C 97 % 1008,0 hPa 0,0 l/m² 0 min 0 min 0 W/m² 6,4 km/h (2 Bft) 97,87 %
09.02.2026 03:42 2,1 °C 1,1 °C -1,7 °C 97 % 1008,0 hPa 0,0 l/m² 0 min 0 min 0 W/m² 25,7 km/h (4 Bft) 97,87 %
09.02.2026 03:44 2,0 °C 1,1 °C -1,7 °C 97 % 1007,9 hPa 0,0 l/m² 0 min 0 min 0 W/m² 16,1 km/h (3 Bft) 97,87 %
09.02.2026 03:46 2,0 °C 1,1 °C -1,7 °C 97 % 1007,9 hPa 0,0 l/m² 0 min 0 min 0 W/m² 19,3 km/h (3 Bft) 95,74 %
09.02.2026 03:48 2,1 °C 1,1 °C -1,7 °C 97 % 1007,9 hPa 0,0 l/m² 0 min 0 min 0 W/m² 19,3 km/h (3 Bft) 97,37 %
09.02.2026 03:50 2,0 °C 1,1 °C -1,7 °C 97 % 1007,9 hPa 0,0 l/m² 0 min 0 min 0 W/m² 12,9 km/h (3 Bft) 97,87 %
09.02.2026 03:52 2,0 °C 1,1 °C -1,7 °C 97 % 1007,8 hPa 0,0 l/m² 0 min 0 min 0 W/m² 16,1 km/h (3 Bft) 97,87 %
09.02.2026 03:54 2,0 °C 1,1 °C -1,7 °C 97 % 1007,9 hPa 0,0 l/m² 0 min 0 min 0 W/m² 6,4 km/h (2 Bft) 97,87 %
09.02.2026 03:56 2,0 °C 1,1 °C -1,7 °C 97 % 1007,9 hPa 0,0 l/m² 0 min 0 min 0 W/m² 12,9 km/h (3 Bft) 97,87 %
09.02.2026 03:58 1,9 °C 1,1 °C -1,7 °C 97 % 1008,0 hPa 0,0 l/m² 0 min 0 min 0 W/m² 9,7 km/h (2 Bft) 97,87 %
09.02.2026 04:00 1,9 °C 1,1 °C -1,7 °C 97 % 1007,9 hPa 0,0 l/m² 0 min 0 min 0 W/m² 9,7 km/h (2 Bft) 100,00 %
09.02.2026 04:05 1,9 °C 1,1 °C -1,7 °C 97 % 1008,0 hPa 0,0 l/m² 0 min 0 min 0 W/m² 12,9 km/h (3 Bft) 100,00 %
09.02.2026 04:10 1,8 °C 1,1 °C -1,7 °C 97 % 1008,0 hPa 0,0 l/m² 0 min 0 min 0 W/m² 16,1 km/h (3 Bft) 100,00 %
09.02.2026 04:12 1,8 °C 1,1 °C -1,7 °C 97 % 1007,9 hPa 0,0 l/m² 0 min 0 min 0 W/m² 6,4 km/h (2 Bft) 93,62 %
09.02.2026 04:14 1,8 °C 1,1 °C -1,7 °C 97 % 1007,9 hPa 0,0 l/m² 0 min 0 min 0 W/m² 6,4 km/h (2 Bft) 100,00 %
09.02.2026 04:16 1,8 °C 1,1 °C -1,7 °C 97 % 1007,9 hPa 0,0 l/m² 0 min 0 min 0 W/m² 6,4 km/h (2 Bft) 100,00 %
09.02.2026 04:18 1,8 °C 1,1 °C -1,7 °C 97 % 1007,9 hPa 0,0 l/m² 0 min 0 min 0 W/m² 6,4 km/h (2 Bft) 97,87 %
09.02.2026 04:20 1,8 °C 1,1 °C -1,7 °C 97 % 1008,0 hPa 0,0 l/m² 0 min 0 min 0 W/m² 6,4 km/h (2 Bft) 97,87 %
09.02.2026 04:22 1,8 °C 1,1 °C -1,7 °C 97 % 1008,0 hPa 0,0 l/m² 0 min 0 min 0 W/m² 6,4 km/h (2 Bft) 100,00 %
09.02.2026 04:24 1,8 °C 1,1 °C -1,7 °C 97 % 1008,0 hPa 0,0 l/m² 0 min 0 min 0 W/m² 9,7 km/h (2 Bft) 97,83 %
09.02.2026 04:26 1,8 °C 1,1 °C -1,7 °C 97 % 1008,0 hPa 0,0 l/m² 0 min 0 min 0 W/m² 12,9 km/h (3 Bft) 97,87 %
09.02.2026 04:28 1,8 °C 1,1 °C -1,7 °C 97 % 1007,9 hPa 0,0 l/m² 0 min 0 min 0 W/m² 12,9 km/h (3 Bft) 100,00 %
09.02.2026 04:30 1,8 °C 1,1 °C -1,7 °C 97 % 1007,9 hPa 0,0 l/m² 0 min 0 min 0 W/m² 6,4 km/h (2 Bft) 100,00 %
09.02.2026 04:32 1,7 °C 1,1 °C -1,7 °C 97 % 1007,9 hPa 0,0 l/m² 0 min 0 min 0 W/m² 12,9 km/h (3 Bft) 100,00 %
09.02.2026 04:34 1,7 °C 1,1 °C -1,7 °C 97 % 1007,9 hPa 0,0 l/m² 0 min 0 min 0 W/m² 16,1 km/h (3 Bft) 100,00 %
09.02.2026 04:36 1,7 °C 1,1 °C -1,7 °C 97 % 1007,9 hPa 0,0 l/m² 0 min 0 min 0 W/m² 9,7 km/h (2 Bft) 97,87 %
09.02.2026 04:38 1,7 °C 1,1 °C -1,7 °C 97 % 1007,9 hPa 0,0 l/m² 0 min 0 min 0 W/m² 16,1 km/h (3 Bft) 100,00 %
09.02.2026 04:40 1,7 °C 1,1 °C -1,7 °C 97 % 1007,8 hPa 0,0 l/m² 0 min 0 min 0 W/m² 12,9 km/h (3 Bft) 100,00 %
09.02.2026 04:42 1,7 °C 1,1 °C -1,7 °C 97 % 1007,8 hPa 0,0 l/m² 0 min 0 min 0 W/m² 6,4 km/h (2 Bft) 95,74 %
09.02.2026 04:44 1,7 °C 1,1 °C -1,7 °C 97 % 1007,8 hPa 0,0 l/m² 0 min 0 min 0 W/m² 6,4 km/h (2 Bft) 100,00 %
09.02.2026 04:46 1,7 °C 0,6 °C -1,7 °C 97 % 1007,8 hPa 0,0 l/m² 0 min 0 min 0 W/m² 6,4 km/h (2 Bft) 95,74 %
09.02.2026 04:48 1,7 °C 0,6 °C -2,2 °C 97 % 1007,9 hPa 0,0 l/m² 0 min 0 min 0 W/m² 6,4 km/h (2 Bft) 97,83 %
09.02.2026 04:50 1,7 °C 1,1 °C -2,2 °C 97 % 1007,9 hPa 0,0 l/m² 0 min 0 min 0 W/m² 12,9 km/h (3 Bft) 97,87 %
09.02.2026 04:52 1,7 °C 0,6 °C -2,2 °C 97 % 1007,8 hPa 0,0 l/m² 0 min 0 min 0 W/m² 6,4 km/h (2 Bft) 97,87 %
09.02.2026 04:54 1,7 °C 0,6 °C -2,2 °C 97 % 1007,8 hPa 0,0 l/m² 0 min 0 min 0 W/m² 6,4 km/h (2 Bft) 97,87 %
09.02.2026 04:56 1,7 °C 1,1 °C -2,2 °C 97 % 1007,9 hPa 0,0 l/m² 0 min 0 min 0 W/m² 6,4 km/h (2 Bft) 97,87 %
09.02.2026 04:58 1,7 °C 1,1 °C -2,2 °C 97 % 1007,8 hPa 0,0 l/m² 0 min 0 min 0 W/m² 6,4 km/h (2 Bft) 97,87 %
09.02.2026 05:00 1,7 °C 0,6 °C -2,2 °C 97 % 1007,8 hPa 0,0 l/m² 0 min 0 min 0 W/m² 6,4 km/h (2 Bft) 95,74 %
09.02.2026 05:02 1,7 °C 1,1 °C -2,2 °C 97 % 1007,8 hPa 0,0 l/m² 0 min 0 min 0 W/m² 9,7 km/h (2 Bft) 95,74 %
09.02.2026 05:04 1,7 °C 0,6 °C -2,2 °C 97 % 1007,8 hPa 0,0 l/m² 0 min 0 min 0 W/m² 0,0 km/h (0 Bft) 97,92 %
09.02.2026 05:06 1,7 °C 0,6 °C -1,7 °C 97 % 1007,8 hPa 0,0 l/m² 0 min 0 min 0 W/m² 0,0 km/h (0 Bft) 97,87 %
09.02.2026 05:08 1,7 °C 0,6 °C -2,2 °C 97 % 1007,7 hPa 0,0 l/m² 0 min 0 min 0 W/m² 0,0 km/h (0 Bft) 95,74 %
09.02.2026 05:10 1,7 °C 0,6 °C -2,2 °C 97 % 1007,7 hPa 0,0 l/m² 0 min 0 min 0 W/m² 0,0 km/h (0 Bft) 93,62 %
09.02.2026 05:12 1,7 °C 0,6 °C -2,2 °C 97 % 1007,7 hPa 0,0 l/m² 0 min 0 min 0 W/m² 0,0 km/h (0 Bft) 95,65 %
09.02.2026 05:14 1,7 °C 0,6 °C -2,2 °C 97 % 1007,7 hPa 0,0 l/m² 0 min 0 min 0 W/m² 0,0 km/h (0 Bft) 95,74 %
09.02.2026 05:16 1,7 °C 0,6 °C -2,2 °C 97 % 1007,8 hPa 0,0 l/m² 0 min 0 min 0 W/m² 0,0 km/h (0 Bft) 93,62 %
09.02.2026 05:18 1,7 °C 0,6 °C -2,2 °C 97 % 1007,7 hPa 0,0 l/m² 0 min 0 min 0 W/m² 0,0 km/h (0 Bft) 97,87 %
09.02.2026 05:20 1,7 °C 0,6 °C -2,2 °C 97 % 1007,7 hPa 0,0 l/m² 0 min 0 min 0 W/m² 0,0 km/h (0 Bft) 95,74 %
09.02.2026 05:22 1,7 °C 0,6 °C -2,2 °C 97 % 1007,7 hPa 0,0 l/m² 0 min 0 min 0 W/m² 0,0 km/h (0 Bft) 97,87 %
09.02.2026 05:24 1,7 °C 0,6 °C -2,2 °C 97 % 1007,7 hPa 0,0 l/m² 0 min 0 min 0 W/m² 0,0 km/h (0 Bft) 93,62 %
09.02.2026 05:26 1,6 °C 0,6 °C -2,2 °C 97 % 1007,7 hPa 0,0 l/m² 0 min 0 min 0 W/m² 0,0 km/h (0 Bft) 97,87 %
09.02.2026 05:28 1,6 °C 0,6 °C -2,2 °C 97 % 1007,7 hPa 0,0 l/m² 0 min 0 min 0 W/m² 12,9 km/h (3 Bft) 97,87 %
09.02.2026 05:30 1,6 °C 0,6 °C -2,2 °C 97 % 1007,8 hPa 0,0 l/m² 0 min 0 min 0 W/m² 3,2 km/h (1 Bft) 97,87 %
09.02.2026 05:32 1,6 °C 0,6 °C -2,2 °C 97 % 1007,8 hPa 0,0 l/m² 0 min 0 min 0 W/m² 3,2 km/h (1 Bft) 97,83 %
09.02.2026 05:34 1,6 °C 0,6 °C -2,2 °C 97 % 1007,8 hPa 0,0 l/m² 0 min 0 min 0 W/m² 6,4 km/h (2 Bft) 95,74 %
09.02.2026 05:36 1,6 °C 0,6 °C -2,2 °C 97 % 1007,7 hPa 0,0 l/m² 0 min 0 min 0 W/m² 0,0 km/h (0 Bft) 95,74 %
09.02.2026 05:38 1,6 °C 0,6 °C -2,2 °C 97 % 1007,7 hPa 0,0 l/m² 0 min 0 min 0 W/m² 3,2 km/h (1 Bft) 95,74 %
09.02.2026 05:40 1,6 °C 0,6 °C -2,2 °C 97 % 1007,7 hPa 0,0 l/m² 0 min 0 min 0 W/m² 3,2 km/h (1 Bft) 95,74 %
09.02.2026 05:42 1,6 °C 0,6 °C -2,2 °C 97 % 1007,7 hPa 0,0 l/m² 0 min 0 min 0 W/m² 0,0 km/h (0 Bft) 95,74 %
09.02.2026 05:44 1,5 °C 0,0 °C -2,2 °C 97 % 1007,7 hPa 0,0 l/m² 0 min 0 min 0 W/m² 0,0 km/h (0 Bft) 93,62 %
09.02.2026 05:46 1,4 °C 0,0 °C -2,2 °C 97 % 1007,7 hPa 0,0 l/m² 0 min 0 min 0 W/m² 0,0 km/h (0 Bft) 95,74 %
09.02.2026 05:48 1,4 °C 0,0 °C -2,8 °C 97 % 1007,7 hPa 0,0 l/m² 0 min 0 min 0 W/m² 6,4 km/h (2 Bft) 93,62 %
09.02.2026 05:50 1,4 °C 0,0 °C -2,8 °C 97 % 1007,7 hPa 0,0 l/m² 0 min 0 min 0 W/m² 0,0 km/h (0 Bft) 93,62 %
09.02.2026 05:52 1,3 °C 0,0 °C -2,8 °C 97 % 1007,7 hPa 0,0 l/m² 0 min 0 min 0 W/m² 3,2 km/h (1 Bft) 95,74 %
09.02.2026 05:54 1,3 °C -0,6 °C -2,8 °C 97 % 1007,7 hPa 0,0 l/m² 0 min 0 min 0 W/m² 0,0 km/h (0 Bft) 95,74 %
09.02.2026 05:56 1,2 °C -0,6 °C -2,8 °C 97 % 1007,7 hPa 0,0 l/m² 0 min 0 min 0 W/m² 0,0 km/h (0 Bft) 91,49 %
09.02.2026 05:58 1,2 °C -0,6 °C -2,8 °C 97 % 1007,7 hPa 0,0 l/m² 0 min 0 min 0 W/m² 0,0 km/h (0 Bft) 91,30 %
09.02.2026 06:00 1,2 °C -0,6 °C -2,8 °C 97 % 1007,7 hPa 0,0 l/m² 0 min 0 min 0 W/m² 0,0 km/h (0 Bft) 93,62 %
09.02.2026 06:02 1,1 °C -0,6 °C -3,3 °C 97 % 1007,7 hPa 0,0 l/m² 0 min 0 min 0 W/m² 0,0 km/h (0 Bft) 97,87 %
09.02.2026 06:04 1,1 °C -0,6 °C -3,3 °C 97 % 1007,7 hPa 0,0 l/m² 0 min 0 min 0 W/m² 0,0 km/h (0 Bft) 97,92 %
09.02.2026 06:07 1,0 °C -0,6 °C -3,3 °C 97 % 1007,7 hPa 0,0 l/m² 0 min 0 min 0 W/m² 0,0 km/h (0 Bft) 94,37 %
09.02.2026 06:08 0,9 °C -0,6 °C -3,3 °C 97 % 1007,7 hPa 0,0 l/m² 0 min 0 min 0 W/m² 0,0 km/h (0 Bft) 95,65 %
09.02.2026 06:12 0,8 °C -0,6 °C -3,3 °C 97 % 1007,7 hPa 0,0 l/m² 0 min 0 min 0 W/m² 0,0 km/h (0 Bft) 98,31 %
09.02.2026 06:14 0,8 °C -0,6 °C -3,3 °C 97 % 1007,7 hPa 0,0 l/m² 0 min 0 min 0 W/m² 0,0 km/h (0 Bft) 93,62 %
09.02.2026 06:16 0,8 °C -1,1 °C -3,3 °C 97 % 1007,7 hPa 0,0 l/m² 0 min 0 min 0 W/m² 0,0 km/h (0 Bft) 97,87 %
09.02.2026 06:18 0,7 °C -0,6 °C -3,3 °C 97 % 1007,7 hPa 0,0 l/m² 0 min 0 min 0 W/m² 0,0 km/h (0 Bft) 97,87 %
09.02.2026 06:20 0,7 °C -0,6 °C -3,3 °C 97 % 1007,7 hPa 0,0 l/m² 0 min 0 min 0 W/m² 0,0 km/h (0 Bft) 100,00 %
09.02.2026 06:22 0,6 °C -0,6 °C -3,3 °C 97 % 1007,7 hPa 0,0 l/m² 0 min 0 min 0 W/m² 3,2 km/h (1 Bft) 100,00 %
09.02.2026 06:24 0,6 °C -0,6 °C -3,3 °C 97 % 1007,7 hPa 0,0 l/m² 0 min 0 min 0 W/m² 3,2 km/h (1 Bft) 97,87 %
09.02.2026 06:26 0,6 °C -0,6 °C -2,8 °C 97 % 1007,7 hPa 0,0 l/m² 0 min 0 min 0 W/m² 3,2 km/h (1 Bft) 100,00 %
09.02.2026 06:28 0,6 °C -0,6 °C -2,8 °C 97 % 1007,7 hPa 0,0 l/m² 0 min 0 min 0 W/m² 3,2 km/h (1 Bft) 97,87 %
09.02.2026 06:30 0,6 °C -0,6 °C -2,8 °C 97 % 1007,6 hPa 0,0 l/m² 0 min 0 min 0 W/m² 3,2 km/h (1 Bft) 97,87 %
09.02.2026 06:32 0,7 °C 0,0 °C -2,8 °C 97 % 1007,6 hPa 0,0 l/m² 0 min 0 min 0 W/m² 6,4 km/h (2 Bft) 100,00 %
09.02.2026 06:34 0,8 °C 0,0 °C -2,8 °C 97 % 1007,6 hPa 0,0 l/m² 0 min 0 min 0 W/m² 6,4 km/h (2 Bft) 95,74 %
09.02.2026 06:36 0,9 °C 0,0 °C -2,8 °C 97 % 1007,6 hPa 0,0 l/m² 0 min 0 min 0 W/m² 6,4 km/h (2 Bft) 97,87 %
09.02.2026 06:38 1,0 °C 0,6 °C -2,2 °C 97 % 1007,7 hPa 0,0 l/m² 0 min 0 min 0 W/m² 6,4 km/h (2 Bft) 95,74 %
09.02.2026 06:40 1,1 °C 0,6 °C -2,2 °C 97 % 1007,7 hPa 0,0 l/m² 0 min 0 min 0 W/m² 9,7 km/h (2 Bft) 97,87 %
09.02.2026 06:42 1,2 °C 0,6 °C -2,2 °C 97 % 1007,6 hPa 0,0 l/m² 0 min 0 min 0 W/m² 6,4 km/h (2 Bft) 97,83 %
09.02.2026 06:44 1,2 °C 0,6 °C -2,2 °C 97 % 1007,7 hPa 0,0 l/m² 0 min 0 min 0 W/m² 3,2 km/h (1 Bft) 97,87 %
09.02.2026 06:46 1,2 °C 0,6 °C -2,2 °C 97 % 1007,6 hPa 0,0 l/m² 0 min 0 min 0 W/m² 0,0 km/h (0 Bft) 97,87 %
09.02.2026 06:48 1,3 °C 0,6 °C -2,2 °C 97 % 1007,7 hPa 0,0 l/m² 0 min 0 min 0 W/m² 0,0 km/h (0 Bft) 93,62 %
09.02.2026 06:50 1,3 °C 0,6 °C -2,2 °C 97 % 1007,6 hPa 0,0 l/m² 0 min 0 min 0 W/m² 0,0 km/h (0 Bft) 97,87 %
09.02.2026 06:52 1,3 °C 0,0 °C -2,2 °C 97 % 1007,7 hPa 0,0 l/m² 0 min 0 min 0 W/m² 3,2 km/h (1 Bft) 97,87 %
09.02.2026 06:54 1,3 °C 0,6 °C -2,2 °C 97 % 1007,7 hPa 0,0 l/m² 0 min 0 min 0 W/m² 3,2 km/h (1 Bft) 97,87 %
09.02.2026 06:56 1,3 °C 0,6 °C -2,2 °C 97 % 1007,6 hPa 0,0 l/m² 0 min 0 min 0 W/m² 3,2 km/h (1 Bft) 97,87 %
09.02.2026 06:58 1,3 °C 0,6 °C -2,2 °C 97 % 1007,6 hPa 0,0 l/m² 0 min 0 min 0 W/m² 6,4 km/h (2 Bft) 95,74 %
09.02.2026 07:00 1,3 °C 0,6 °C -2,2 °C 97 % 1007,6 hPa 0,0 l/m² 0 min 0 min 0 W/m² 6,4 km/h (2 Bft) 97,87 %
09.02.2026 07:02 1,3 °C 0,6 °C -2,2 °C 97 % 1007,6 hPa 0,0 l/m² 0 min 0 min 0 W/m² 0,0 km/h (0 Bft) 93,62 %
09.02.2026 07:04 1,3 °C 0,6 °C -2,2 °C 97 % 1007,6 hPa 0,0 l/m² 0 min 0 min 0 W/m² 3,2 km/h (1 Bft) 100,00 %
09.02.2026 07:06 1,3 °C 0,0 °C -2,2 °C 97 % 1007,6 hPa 0,0 l/m² 0 min 0 min 0 W/m² 3,2 km/h (1 Bft) 98,28 %
09.02.2026 07:08 1,3 °C 0,0 °C -2,2 °C 97 % 1007,6 hPa 0,0 l/m² 0 min 0 min 0 W/m² 0,0 km/h (0 Bft) 100,00 %
09.02.2026 07:10 1,3 °C 0,0 °C -2,2 °C 97 % 1007,6 hPa 0,0 l/m² 0 min 0 min 0 W/m² 0,0 km/h (0 Bft) 97,87 %
09.02.2026 07:12 1,2 °C 0,0 °C -2,2 °C 97 % 1007,6 hPa 0,0 l/m² 0 min 0 min 0 W/m² 0,0 km/h (0 Bft) 100,00 %
09.02.2026 07:14 1,2 °C 0,0 °C -2,8 °C 97 % 1007,5 hPa 0,0 l/m² 0 min 0 min 0 W/m² 0,0 km/h (0 Bft) 100,00 %
09.02.2026 07:16 1,2 °C 0,0 °C -2,8 °C 97 % 1007,6 hPa 0,0 l/m² 0 min 0 min 0 W/m² 0,0 km/h (0 Bft) 100,00 %
09.02.2026 07:18 1,2 °C 0,0 °C -2,8 °C 97 % 1007,6 hPa 0,0 l/m² 0 min 0 min 0 W/m² 0,0 km/h (0 Bft) 100,00 %
09.02.2026 07:20 1,2 °C 0,0 °C -2,8 °C 97 % 1007,6 hPa 0,0 l/m² 0 min 0 min 0 W/m² 0,0 km/h (0 Bft) 100,00 %
09.02.2026 07:22 1,2 °C 0,0 °C -2,8 °C 97 % 1007,5 hPa 0,0 l/m² 0 min 0 min 0 W/m² 0,0 km/h (0 Bft) 100,00 %
09.02.2026 07:24 1,2 °C 0,0 °C -2,8 °C 97 % 1007,5 hPa 0,0 l/m² 0 min 0 min 0 W/m² 0,0 km/h (0 Bft) 100,00 %
09.02.2026 07:26 1,1 °C 0,0 °C -2,8 °C 97 % 1007,5 hPa 0,0 l/m² 0 min 0 min 0 W/m² 0,0 km/h (0 Bft) 100,00 %
09.02.2026 07:28 1,1 °C 0,0 °C -2,8 °C 97 % 1007,5 hPa 0,0 l/m² 0 min 0 min 0 W/m² 0,0 km/h (0 Bft) 100,00 %
09.02.2026 07:30 1,1 °C 0,0 °C -2,8 °C 97 % 1007,5 hPa 0,0 l/m² 0 min 0 min 0 W/m² 0,0 km/h (0 Bft) 100,00 %
09.02.2026 07:32 1,1 °C 0,0 °C -2,8 °C 97 % 1007,5 hPa 0,0 l/m² 0 min 0 min 0 W/m² 0,0 km/h (0 Bft) 100,00 %
09.02.2026 07:34 1,1 °C 0,0 °C -2,8 °C 97 % 1007,5 hPa 0,0 l/m² 0 min 0 min 0 W/m² 0,0 km/h (0 Bft) 100,00 %
09.02.2026 07:36 1,1 °C 0,0 °C -2,8 °C 97 % 1007,4 hPa 0,0 l/m² 0 min 0 min 0 W/m² 0,0 km/h (0 Bft) 97,87 %
09.02.2026 07:38 1,1 °C 0,0 °C -2,2 °C 97 % 1007,4 hPa 0,0 l/m² 0 min 0 min 0 W/m² 0,0 km/h (0 Bft) 100,00 %
09.02.2026 07:40 1,1 °C 0,0 °C -2,2 °C 97 % 1007,5 hPa 0,0 l/m² 0 min 0 min 0 W/m² 0,0 km/h (0 Bft) 100,00 %
09.02.2026 07:42 1,1 °C 0,0 °C -2,2 °C 97 % 1007,5 hPa 0,0 l/m² 0 min 0 min 0 W/m² 0,0 km/h (0 Bft) 97,87 %
09.02.2026 07:44 1,1 °C 0,0 °C -2,2 °C 97 % 1007,5 hPa 0,0 l/m² 0 min 0 min 0 W/m² 0,0 km/h (0 Bft) 100,00 %
09.02.2026 07:46 1,1 °C 0,0 °C -2,2 °C 97 % 1007,5 hPa 0,0 l/m² 0 min 0 min 0 W/m² 0,0 km/h (0 Bft) 97,87 %
09.02.2026 07:48 1,1 °C 0,6 °C -2,2 °C 97 % 1007,5 hPa 0,0 l/m² 0 min 0 min 0 W/m² 6,4 km/h (2 Bft) 100,00 %
09.02.2026 07:50 1,1 °C 0,6 °C -2,2 °C 97 % 1007,4 hPa 0,0 l/m² 0 min 0 min 0 W/m² 6,4 km/h (2 Bft) 100,00 %
09.02.2026 07:52 1,2 °C 0,6 °C -2,2 °C 97 % 1007,4 hPa 0,0 l/m² 0 min 0 min 0 W/m² 6,4 km/h (2 Bft) 97,83 %
09.02.2026 07:54 1,2 °C 0,6 °C -2,2 °C 97 % 1007,5 hPa 0,0 l/m² 0 min 0 min 0 W/m² 12,9 km/h (3 Bft) 100,00 %
09.02.2026 07:56 1,2 °C 0,6 °C -2,2 °C 97 % 1007,5 hPa 0,0 l/m² 0 min 0 min 0 W/m² 6,4 km/h (2 Bft) 95,74 %
09.02.2026 07:58 1,2 °C 0,6 °C -2,2 °C 97 % 1007,5 hPa 0,0 l/m² 0 min 0 min 0 W/m² 12,9 km/h (3 Bft) 100,00 %
09.02.2026 08:00 1,2 °C 0,6 °C -2,2 °C 97 % 1007,5 hPa 0,0 l/m² 0 min 0 min 4 W/m² 6,4 km/h (2 Bft) 95,74 %
09.02.2026 08:02 1,2 °C 0,6 °C -2,2 °C 97 % 1007,5 hPa 0,0 l/m² 0 min 0 min 5 W/m² 12,9 km/h (3 Bft) 100,00 %
09.02.2026 08:04 1,2 °C 0,6 °C -2,2 °C 97 % 1007,5 hPa 0,0 l/m² 0 min 0 min 6 W/m² 6,4 km/h (2 Bft) 97,87 %
09.02.2026 08:06 1,2 °C 0,6 °C -2,2 °C 97 % 1007,5 hPa 0,0 l/m² 0 min 0 min 7 W/m² 6,4 km/h (2 Bft) 97,87 %
09.02.2026 08:08 1,2 °C 0,6 °C -2,2 °C 97 % 1007,6 hPa 0,0 l/m² 0 min 0 min 7 W/m² 6,4 km/h (2 Bft) 95,83 %
09.02.2026 08:10 1,2 °C 0,6 °C -2,2 °C 97 % 1007,5 hPa 0,0 l/m² 0 min 0 min 9 W/m² 6,4 km/h (2 Bft) 97,87 %
09.02.2026 08:12 1,2 °C 0,6 °C -2,2 °C 97 % 1007,6 hPa 0,0 l/m² 0 min 0 min 10 W/m² 12,9 km/h (3 Bft) 97,87 %
09.02.2026 08:14 1,2 °C 0,6 °C -2,2 °C 97 % 1007,6 hPa 0,0 l/m² 0 min 0 min 11 W/m² 3,2 km/h (1 Bft) 97,87 %
09.02.2026 08:16 1,2 °C 0,6 °C -2,2 °C 97 % 1007,7 hPa 0,0 l/m² 0 min 0 min 11 W/m² 0,0 km/h (0 Bft) 93,48 %
09.02.2026 08:18 1,2 °C 0,6 °C -2,2 °C 97 % 1007,7 hPa 0,0 l/m² 0 min 0 min 12 W/m² 12,9 km/h (3 Bft) 95,74 %
09.02.2026 08:20 1,2 °C 0,6 °C -2,2 °C 97 % 1007,7 hPa 0,0 l/m² 0 min 0 min 14 W/m² 12,9 km/h (3 Bft) 93,62 %
09.02.2026 08:22 1,2 °C 0,6 °C -2,2 °C 97 % 1007,7 hPa 0,0 l/m² 0 min 0 min 15 W/m² 3,2 km/h (1 Bft) 93,62 %
09.02.2026 08:24 1,2 °C 0,6 °C -2,2 °C 97 % 1007,8 hPa 0,0 l/m² 0 min 0 min 16 W/m² 6,4 km/h (2 Bft) 93,62 %
09.02.2026 08:26 1,2 °C 0,6 °C -2,2 °C 97 % 1007,8 hPa 0,0 l/m² 0 min 0 min 18 W/m² 3,2 km/h (1 Bft) 93,62 %
09.02.2026 08:28 1,2 °C 0,6 °C -2,2 °C 97 % 1007,9 hPa 0,0 l/m² 0 min 0 min 19 W/m² 3,2 km/h (1 Bft) 47,73 %
09.02.2026 08:30 1,2 °C 0,6 °C -2,2 °C 97 % 1007,9 hPa 0,0 l/m² 0 min 0 min 21 W/m² 3,2 km/h (1 Bft) 91,49 %
09.02.2026 08:32 1,2 °C 0,6 °C -2,2 °C 97 % 1007,9 hPa 0,0 l/m² 0 min 0 min 21 W/m² 3,2 km/h (1 Bft) 89,36 %
09.02.2026 08:34 1,2 °C 0,6 °C -2,2 °C 97 % 1007,9 hPa 0,0 l/m² 0 min 0 min 21 W/m² 3,2 km/h (1 Bft) 91,49 %
09.02.2026 08:36 1,2 °C 0,6 °C -2,2 °C 98 % 1007,9 hPa 0,0 l/m² 0 min 0 min 23 W/m² 6,4 km/h (2 Bft) 93,62 %
09.02.2026 08:38 1,2 °C 0,6 °C -2,2 °C 98 % 1007,9 hPa 0,0 l/m² 0 min 0 min 23 W/m² 6,4 km/h (2 Bft) 91,49 %
09.02.2026 08:40 1,2 °C 0,6 °C -2,2 °C 98 % 1007,9 hPa 0,0 l/m² 0 min 0 min 25 W/m² 12,9 km/h (3 Bft) 93,48 %
09.02.2026 08:42 1,2 °C 0,6 °C -2,2 °C 98 % 1007,9 hPa 0,0 l/m² 0 min 0 min 26 W/m² 12,9 km/h (3 Bft) 100,00 %
09.02.2026 08:44 1,2 °C 0,6 °C -2,2 °C 98 % 1007,9 hPa 0,0 l/m² 0 min 0 min 27 W/m² 6,4 km/h (2 Bft) 91,49 %
09.02.2026 08:46 1,2 °C 0,6 °C -2,2 °C 98 % 1007,9 hPa 0,0 l/m² 0 min 0 min 29 W/m² 6,4 km/h (2 Bft) 93,62 %
09.02.2026 08:48 1,2 °C 1,1 °C -2,2 °C 98 % 1007,9 hPa 0,0 l/m² 0 min 0 min 31 W/m² 6,4 km/h (2 Bft) 97,87 %
09.02.2026 08:50 1,2 °C 1,1 °C -2,2 °C 98 % 1007,9 hPa 0,0 l/m² 0 min 0 min 32 W/m² 6,4 km/h (2 Bft) 96,55 %
09.02.2026 08:52 1,2 °C 1,1 °C -2,2 °C 98 % 1008,0 hPa 0,0 l/m² 0 min 0 min 32 W/m² 9,7 km/h (2 Bft) 95,74 %
09.02.2026 08:54 1,2 °C 1,1 °C -2,2 °C 98 % 1008,0 hPa 0,0 l/m² 0 min 0 min 35 W/m² 3,2 km/h (1 Bft) 95,74 %
09.02.2026 08:56 1,2 °C 1,1 °C -1,7 °C 98 % 1008,1 hPa 0,0 l/m² 0 min 0 min 39 W/m² 12,9 km/h (3 Bft) 97,87 %
09.02.2026 08:58 1,2 °C 1,1 °C -1,7 °C 98 % 1008,1 hPa 0,0 l/m² 0 min 0 min 43 W/m² 12,9 km/h (3 Bft) 93,62 %
09.02.2026 09:00 1,2 °C 1,1 °C -1,7 °C 97 % 1008,1 hPa 0,0 l/m² 0 min 0 min 47 W/m² 0,0 km/h (0 Bft) 97,87 %
09.02.2026 09:02 1,3 °C 1,1 °C -1,7 °C 97 % 1008,1 hPa 0,0 l/m² 0 min 0 min 50 W/m² 0,0 km/h (0 Bft) 97,87 %
09.02.2026 09:04 1,3 °C 1,1 °C -1,7 °C 98 % 1008,1 hPa 0,0 l/m² 0 min 0 min 49 W/m² 12,9 km/h (3 Bft) 97,56 %
09.02.2026 09:06 1,3 °C 1,1 °C -1,7 °C 98 % 1008,1 hPa 0,0 l/m² 0 min 0 min 49 W/m² 9,7 km/h (2 Bft) 98,08 %
09.02.2026 09:08 1,3 °C 1,1 °C -1,7 °C 98 % 1008,1 hPa 0,0 l/m² 0 min 0 min 50 W/m² 6,4 km/h (2 Bft) 100,00 %
09.02.2026 09:10 1,3 °C 1,7 °C -1,7 °C 98 % 1008,1 hPa 0,0 l/m² 0 min 0 min 54 W/m² 6,4 km/h (2 Bft) 100,00 %
09.02.2026 09:12 1,3 °C 1,7 °C -1,7 °C 98 % 1008,1 hPa 0,0 l/m² 0 min 0 min 56 W/m² 9,7 km/h (2 Bft) 100,00 %
09.02.2026 09:14 1,4 °C 1,7 °C -1,7 °C 98 % 1008,1 hPa 0,2 l/m² 0 min 0 min 62 W/m² 6,4 km/h (2 Bft) 97,83 %
09.02.2026 09:16 1,4 °C 1,7 °C -1,7 °C 98 % 1008,0 hPa 0,0 l/m² 0 min 0 min 65 W/m² 6,4 km/h (2 Bft) 100,00 %
09.02.2026 09:18 1,4 °C 1,7 °C -1,7 °C 98 % 1008,0 hPa 0,0 l/m² 0 min 0 min 62 W/m² 12,9 km/h (3 Bft) 97,87 %
09.02.2026 09:20 1,4 °C 1,7 °C -1,7 °C 98 % 1008,0 hPa 0,0 l/m² 0 min 0 min 62 W/m² 6,4 km/h (2 Bft) 100,00 %
09.02.2026 09:22 1,4 °C 1,7 °C -1,7 °C 98 % 1008,0 hPa 0,0 l/m² 0 min 0 min 73 W/m² 12,9 km/h (3 Bft) 97,87 %
09.02.2026 09:24 1,4 °C 1,7 °C -1,7 °C 98 % 1008,0 hPa 0,0 l/m² 0 min 0 min 80 W/m² 6,4 km/h (2 Bft) 97,87 %
09.02.2026 09:26 1,5 °C 2,2 °C -1,1 °C 98 % 1008,0 hPa 0,0 l/m² 0 min 0 min 76 W/m² 9,7 km/h (2 Bft) 97,87 %
09.02.2026 09:28 1,5 °C 2,2 °C -1,1 °C 98 % 1008,0 hPa 0,0 l/m² 0 min 0 min 69 W/m² 6,4 km/h (2 Bft) 100,00 %
09.02.2026 09:30 1,6 °C 2,2 °C -1,1 °C 98 % 1008,0 hPa 0,0 l/m² 0 min 0 min 65 W/m² 6,4 km/h (2 Bft) 100,00 %
09.02.2026 09:32 1,6 °C 1,7 °C -1,1 °C 98 % 1008,0 hPa 0,0 l/m² 0 min 0 min 60 W/m² 12,9 km/h (3 Bft) 97,87 %
09.02.2026 09:34 1,6 °C 1,7 °C -1,7 °C 98 % 1007,9 hPa 0,0 l/m² 0 min 0 min 61 W/m² 6,4 km/h (2 Bft) 100,00 %
09.02.2026 09:36 1,6 °C 1,7 °C -1,7 °C 98 % 1007,9 hPa 0,0 l/m² 0 min 0 min 63 W/m² 12,9 km/h (3 Bft) 100,00 %
09.02.2026 09:38 1,6 °C 1,7 °C -1,1 °C 98 % 1007,9 hPa 0,0 l/m² 0 min 0 min 64 W/m² 12,9 km/h (3 Bft) 100,00 %
09.02.2026 09:40 1,6 °C 2,2 °C -1,1 °C 98 % 1008,0 hPa 0,0 l/m² 0 min 0 min 63 W/m² 12,9 km/h (3 Bft) 100,00 %
09.02.2026 09:42 1,7 °C 2,2 °C -1,1 °C 98 % 1007,9 hPa 0,0 l/m² 0 min 0 min 71 W/m² 6,4 km/h (2 Bft) 100,00 %
09.02.2026 09:44 1,7 °C 2,2 °C -1,1 °C 98 % 1007,9 hPa 0,0 l/m² 0 min 0 min 98 W/m² 12,9 km/h (3 Bft) 97,87 %
09.02.2026 09:46 1,7 °C 2,2 °C -1,1 °C 98 % 1007,8 hPa 0,0 l/m² 2 min 0 min 115 W/m² 12,9 km/h (3 Bft) 100,00 %
09.02.2026 09:48 1,8 °C 2,2 °C -1,1 °C 98 % 1007,8 hPa 0,0 l/m² 0 min 0 min 115 W/m² 12,9 km/h (3 Bft) 100,00 %
09.02.2026 09:50 1,8 °C 2,2 °C -1,1 °C 98 % 1007,8 hPa 0,0 l/m² 0 min 0 min 96 W/m² 19,3 km/h (3 Bft) 100,00 %
09.02.2026 09:52 1,9 °C 2,8 °C -1,1 °C 98 % 1007,8 hPa 0,0 l/m² 0 min 0 min 101 W/m² 16,1 km/h (3 Bft) 95,74 %
09.02.2026 09:54 1,9 °C 2,8 °C -1,1 °C 98 % 1007,7 hPa 0,0 l/m² 0 min 0 min 107 W/m² 12,9 km/h (3 Bft) 97,87 %
09.02.2026 09:56 1,9 °C 3,3 °C -1,1 °C 98 % 1007,7 hPa 0,0 l/m² 0 min 0 min 76 W/m² 16,1 km/h (3 Bft) 100,00 %
09.02.2026 09:58 2,0 °C 3,9 °C -1,1 °C 98 % 1007,7 hPa 0,0 l/m² 0 min 0 min 71 W/m² 12,9 km/h (3 Bft) 100,00 %
09.02.2026 10:00 2,1 °C 4,4 °C -1,1 °C 98 % 1007,7 hPa 0,0 l/m² 0 min 0 min 107 W/m² 12,9 km/h (3 Bft) 95,74 %
09.02.2026 10:02 2,1 °C 5,0 °C -1,1 °C 98 % 1007,7 hPa 0,0 l/m² 0 min 0 min 122 W/m² 12,9 km/h (3 Bft) 100,00 %
09.02.2026 10:04 2,2 °C 5,6 °C -1,1 °C 98 % 1007,7 hPa 0,0 l/m² 2 min 0 min 139 W/m² 12,9 km/h (3 Bft) 100,00 %
09.02.2026 10:06 2,2 °C 6,1 °C -0,6 °C 98 % 1007,6 hPa 0,0 l/m² 2 min 0 min 168 W/m² 9,7 km/h (2 Bft) 100,00 %
09.02.2026 10:08 2,3 °C 6,1 °C -0,6 °C 98 % 1007,6 hPa 0,0 l/m² 2 min 0 min 184 W/m² 16,1 km/h (3 Bft) 97,14 %
09.02.2026 10:10 2,3 °C 6,7 °C -0,6 °C 98 % 1007,6 hPa 0,0 l/m² 2 min 0 min 172 W/m² 16,1 km/h (3 Bft) 100,00 %
09.02.2026 10:12 2,4 °C 6,1 °C -0,6 °C 98 % 1007,6 hPa 0,0 l/m² 2 min 0 min 192 W/m² 6,4 km/h (2 Bft) 97,87 %
09.02.2026 10:14 2,5 °C 6,1 °C -0,6 °C 98 % 1007,6 hPa 0,0 l/m² 2 min 0 min 211 W/m² 6,4 km/h (2 Bft) 100,00 %
09.02.2026 10:16 2,6 °C 7,2 °C -0,6 °C 98 % 1007,6 hPa 0,0 l/m² 2 min 0 min 184 W/m² 6,4 km/h (2 Bft) 100,00 %
09.02.2026 10:18 2,7 °C 7,8 °C 0,0 °C 98 % 1007,6 hPa 0,0 l/m² 2 min 0 min 216 W/m² 12,9 km/h (3 Bft) 97,87 %
09.02.2026 10:20 2,8 °C 7,8 °C 0,0 °C 98 % 1007,6 hPa 0,0 l/m² 2 min 0 min 235 W/m² 12,9 km/h (3 Bft) 100,00 %
09.02.2026 10:22 2,8 °C 6,7 °C 0,0 °C 98 % 1007,6 hPa 0,0 l/m² 2 min 0 min 281 W/m² 19,3 km/h (3 Bft) 100,00 %
09.02.2026 10:24 2,9 °C 6,7 °C 0,0 °C 98 % 1007,6 hPa 0,0 l/m² 2 min 0 min 290 W/m² 12,9 km/h (3 Bft) 100,00 %
09.02.2026 10:26 3,1 °C 7,8 °C 0,0 °C 98 % 1007,6 hPa 0,0 l/m² 2 min 0 min 286 W/m² 12,9 km/h (3 Bft) 97,87 %
09.02.2026 10:28 3,1 °C 7,8 °C 0,0 °C 98 % 1007,5 hPa 0,0 l/m² 2 min 0 min 242 W/m² 16,1 km/h (3 Bft) 98,00 %
09.02.2026 10:30 3,2 °C 7,2 °C 0,0 °C 98 % 1007,5 hPa 0,0 l/m² 2 min 0 min 213 W/m² 12,9 km/h (3 Bft) 95,74 %
09.02.2026 10:32 3,2 °C 6,7 °C 0,0 °C 98 % 1007,5 hPa 0,0 l/m² 2 min 0 min 204 W/m² 16,1 km/h (3 Bft) 95,74 %
09.02.2026 10:34 3,2 °C 6,7 °C 0,0 °C 98 % 1007,5 hPa 0,0 l/m² 2 min 0 min 199 W/m² 16,1 km/h (3 Bft) 97,87 %
09.02.2026 10:36 3,3 °C 7,2 °C 0,6 °C 98 % 1007,5 hPa 0,0 l/m² 2 min 0 min 228 W/m² 16,1 km/h (3 Bft) 95,74 %
09.02.2026 10:38 3,3 °C 7,2 °C 0,6 °C 98 % 1007,5 hPa 0,0 l/m² 2 min 0 min 223 W/m² 16,1 km/h (3 Bft) 97,87 %
09.02.2026 10:40 3,3 °C 7,2 °C 0,6 °C 98 % 1007,5 hPa 0,0 l/m² 2 min 0 min 188 W/m² 6,4 km/h (2 Bft) 97,87 %
09.02.2026 10:42 3,4 °C 7,2 °C 0,6 °C 98 % 1007,5 hPa 0,0 l/m² 2 min 0 min 194 W/m² 12,9 km/h (3 Bft) 97,83 %
09.02.2026 10:44 3,4 °C 7,8 °C 0,6 °C 98 % 1007,5 hPa 0,0 l/m² 2 min 0 min 222 W/m² 12,9 km/h (3 Bft) 97,87 %
09.02.2026 10:46 3,4 °C 7,8 °C 0,6 °C 98 % 1007,5 hPa 0,0 l/m² 2 min 0 min 238 W/m² 12,9 km/h (3 Bft) 97,87 %
09.02.2026 10:48 3,5 °C 8,3 °C 0,6 °C 98 % 1007,5 hPa 0,0 l/m² 2 min 0 min 233 W/m² 12,9 km/h (3 Bft) 97,87 %
09.02.2026 10:50 3,6 °C 8,9 °C 0,6 °C 98 % 1007,5 hPa 0,0 l/m² 2 min 0 min 233 W/m² 16,1 km/h (3 Bft) 91,49 %
09.02.2026 10:52 3,6 °C 8,3 °C 0,6 °C 98 % 1007,5 hPa 0,0 l/m² 2 min 0 min 226 W/m² 12,9 km/h (3 Bft) 97,87 %
09.02.2026 10:54 3,7 °C 8,3 °C 0,6 °C 98 % 1007,4 hPa 0,0 l/m² 2 min 0 min 209 W/m² 16,1 km/h (3 Bft) 97,87 %
09.02.2026 10:56 3,7 °C 8,3 °C 1,1 °C 98 % 1007,4 hPa 0,0 l/m² 2 min 0 min 219 W/m² 12,9 km/h (3 Bft) 95,74 %
09.02.2026 10:58 3,8 °C 8,9 °C 1,1 °C 98 % 1007,3 hPa 0,0 l/m² 2 min 0 min 247 W/m² 9,7 km/h (2 Bft) 95,74 %
09.02.2026 11:00 3,8 °C 9,4 °C 1,1 °C 98 % 1007,3 hPa 0,0 l/m² 2 min 0 min 265 W/m² 12,9 km/h (3 Bft) 95,74 %
09.02.2026 11:02 3,9 °C 9,4 °C 1,1 °C 98 % 1007,3 hPa 0,0 l/m² 2 min 0 min 224 W/m² 9,7 km/h (2 Bft) 95,74 %
09.02.2026 11:04 3,9 °C 8,9 °C 1,1 °C 98 % 1007,4 hPa 0,0 l/m² 2 min 0 min 189 W/m² 12,9 km/h (3 Bft) 97,62 %
09.02.2026 11:06 4,0 °C 8,3 °C 1,1 °C 98 % 1007,4 hPa 0,0 l/m² 2 min 0 min 205 W/m² 6,4 km/h (2 Bft) 97,87 %
09.02.2026 11:08 4,1 °C 8,9 °C 1,1 °C 98 % 1007,3 hPa 0,0 l/m² 2 min 0 min 235 W/m² 6,4 km/h (2 Bft) 97,87 %
09.02.2026 11:10 4,1 °C 8,9 °C 1,1 °C 98 % 1007,3 hPa 0,0 l/m² 2 min 0 min 218 W/m² 9,7 km/h (2 Bft) 95,65 %
09.02.2026 11:12 4,1 °C 8,3 °C 1,1 °C 98 % 1007,3 hPa 0,0 l/m² 2 min 0 min 208 W/m² 9,7 km/h (2 Bft) 97,87 %
09.02.2026 11:14 4,2 °C 7,8 °C 1,1 °C 98 % 1007,3 hPa 0,0 l/m² 0 min 0 min 176 W/m² 16,1 km/h (3 Bft) 97,87 %
09.02.2026 11:16 4,2 °C 7,2 °C 1,1 °C 97 % 1007,2 hPa 0,0 l/m² 2 min 0 min 189 W/m² 12,9 km/h (3 Bft) 97,87 %
09.02.2026 11:18 4,2 °C 7,2 °C 1,7 °C 97 % 1007,2 hPa 0,0 l/m² 2 min 0 min 192 W/m² 12,9 km/h (3 Bft) 97,87 %
09.02.2026 11:20 4,2 °C 7,8 °C 1,7 °C 97 % 1007,2 hPa 0,0 l/m² 2 min 0 min 209 W/m² 12,9 km/h (3 Bft) 95,74 %
09.02.2026 11:22 4,3 °C 7,8 °C 1,7 °C 97 % 1007,2 hPa 0,0 l/m² 2 min 0 min 221 W/m² 16,1 km/h (3 Bft) 97,87 %
09.02.2026 11:24 4,3 °C 7,8 °C 1,7 °C 97 % 1007,3 hPa 0,0 l/m² 2 min 0 min 215 W/m² 12,9 km/h (3 Bft) 95,74 %
09.02.2026 11:26 4,3 °C 7,8 °C 1,7 °C 97 % 1007,3 hPa 0,0 l/m² 2 min 0 min 212 W/m² 19,3 km/h (3 Bft) 97,87 %
09.02.2026 11:28 4,4 °C 7,8 °C 1,7 °C 96 % 1007,3 hPa 0,0 l/m² 2 min 0 min 218 W/m² 12,9 km/h (3 Bft) 95,74 %
09.02.2026 11:30 4,4 °C 8,9 °C 1,7 °C 96 % 1007,3 hPa 0,0 l/m² 2 min 0 min 265 W/m² 6,4 km/h (2 Bft) 95,74 %
09.02.2026 11:32 4,5 °C 10,0 °C 1,7 °C 96 % 1007,2 hPa 0,0 l/m² 2 min 0 min 310 W/m² 12,9 km/h (3 Bft) 95,65 %
09.02.2026 11:34 4,6 °C 9,4 °C 1,7 °C 96 % 1007,2 hPa 0,0 l/m² 2 min 0 min 274 W/m² 19,3 km/h (3 Bft) 95,74 %
09.02.2026 11:36 4,7 °C 10,0 °C 2,2 °C 96 % 1007,2 hPa 0,0 l/m² 2 min 0 min 270 W/m² 9,7 km/h (2 Bft) 97,87 %
09.02.2026 11:38 4,7 °C 10,0 °C 2,2 °C 96 % 1007,1 hPa 0,0 l/m² 2 min 0 min 250 W/m² 12,9 km/h (3 Bft) 97,87 %
09.02.2026 11:40 4,8 °C 9,4 °C 2,2 °C 95 % 1007,1 hPa 0,0 l/m² 2 min 0 min 259 W/m² 16,1 km/h (3 Bft) 95,74 %
09.02.2026 11:42 4,9 °C 9,4 °C 2,2 °C 95 % 1007,1 hPa 0,0 l/m² 2 min 0 min 277 W/m² 19,3 km/h (3 Bft) 97,87 %
09.02.2026 11:44 4,9 °C 9,4 °C 2,2 °C 95 % 1007,0 hPa 0,0 l/m² 2 min 0 min 268 W/m² 12,9 km/h (3 Bft) 94,29 %
09.02.2026 11:46 5,0 °C 9,4 °C 2,2 °C 94 % 1007,1 hPa 0,0 l/m² 2 min 0 min 259 W/m² 19,3 km/h (3 Bft) 100,00 %
09.02.2026 11:48 5,1 °C 8,9 °C 2,2 °C 94 % 1007,0 hPa 0,0 l/m² 2 min 0 min 257 W/m² 16,1 km/h (3 Bft) 97,87 %
09.02.2026 11:50 5,1 °C 8,9 °C 2,2 °C 94 % 1006,9 hPa 0,0 l/m² 2 min 0 min 248 W/m² 19,3 km/h (3 Bft) 100,00 %
09.02.2026 11:52 5,2 °C 8,3 °C 2,2 °C 93 % 1006,9 hPa 0,0 l/m² 2 min 0 min 247 W/m² 19,3 km/h (3 Bft) 95,74 %
09.02.2026 11:54 5,2 °C 8,3 °C 2,2 °C 93 % 1006,9 hPa 0,0 l/m² 2 min 0 min 255 W/m² 19,3 km/h (3 Bft) 100,00 %
09.02.2026 11:56 5,3 °C 8,3 °C 2,2 °C 92 % 1006,9 hPa 0,0 l/m² 2 min 0 min 267 W/m² 12,9 km/h (3 Bft) 95,74 %
09.02.2026 11:58 5,3 °C 8,3 °C 2,2 °C 92 % 1006,9 hPa 0,0 l/m² 2 min 0 min 239 W/m² 12,9 km/h (3 Bft) 97,83 %
09.02.2026 12:00 5,3 °C 7,8 °C 2,2 °C 92 % 1006,8 hPa 0,0 l/m² 0 min 0 min 198 W/m² 16,1 km/h (3 Bft) 100,00 %
09.02.2026 12:02 5,4 °C 7,8 °C 2,2 °C 92 % 1006,8 hPa 0,0 l/m² 2 min 0 min 235 W/m² 12,9 km/h (3 Bft) 95,74 %
09.02.2026 12:04 5,4 °C 8,3 °C 2,8 °C 91 % 1006,8 hPa 0,0 l/m² 2 min 0 min 253 W/m² 12,9 km/h (3 Bft) 100,00 %
09.02.2026 12:07 5,6 °C 8,9 °C 2,8 °C 91 % 1006,7 hPa 0,0 l/m² 3 min 0 min 240 W/m² 16,1 km/h (3 Bft) 100,00 %
09.02.2026 12:08 5,6 °C 8,9 °C 2,8 °C 91 % 1006,7 hPa 0,0 l/m² 1 min 0 min 210 W/m² 12,9 km/h (3 Bft) 100,00 %
09.02.2026 12:12 5,7 °C 7,8 °C 2,8 °C 90 % 1006,7 hPa 0,0 l/m² 4 min 0 min 205 W/m² 16,1 km/h (3 Bft) 96,49 %
09.02.2026 12:14 5,7 °C 7,8 °C 2,8 °C 90 % 1006,8 hPa 0,0 l/m² 2 min 0 min 205 W/m² 16,1 km/h (3 Bft) 95,74 %
09.02.2026 12:16 5,8 °C 7,2 °C 2,8 °C 89 % 1006,7 hPa 0,0 l/m² 2 min 0 min 206 W/m² 19,3 km/h (3 Bft) 95,65 %
09.02.2026 12:18 5,8 °C 7,2 °C 2,8 °C 89 % 1006,7 hPa 0,0 l/m² 2 min 0 min 230 W/m² 19,3 km/h (3 Bft) 95,74 %
09.02.2026 12:20 5,9 °C 7,8 °C 3,3 °C 89 % 1006,7 hPa 0,0 l/m² 2 min 0 min 262 W/m² 16,1 km/h (3 Bft) 95,74 %
09.02.2026 12:22 5,9 °C 8,3 °C 3,3 °C 88 % 1006,7 hPa 0,0 l/m² 2 min 0 min 309 W/m² 16,1 km/h (3 Bft) 95,74 %
09.02.2026 12:24 6,0 °C 8,3 °C 3,3 °C 88 % 1006,6 hPa 0,0 l/m² 2 min 0 min 364 W/m² 25,7 km/h (4 Bft) 93,62 %
09.02.2026 12:26 6,1 °C 8,3 °C 4,4 °C 88 % 1006,6 hPa 0,0 l/m² 2 min 0 min 415 W/m² 16,1 km/h (3 Bft) 95,74 %
09.02.2026 12:28 6,2 °C 8,9 °C 4,4 °C 87 % 1006,5 hPa 0,0 l/m² 2 min 0 min 384 W/m² 16,1 km/h (3 Bft) 95,74 %
09.02.2026 12:30 6,2 °C 8,9 °C 4,4 °C 87 % 1006,5 hPa 0,0 l/m² 2 min 0 min 354 W/m² 22,5 km/h (4 Bft) 95,74 %
09.02.2026 12:32 6,3 °C 10,0 °C 4,4 °C 87 % 1006,5 hPa 0,0 l/m² 2 min 0 min 382 W/m² 19,3 km/h (3 Bft) 91,49 %
09.02.2026 12:34 6,4 °C 10,6 °C 4,4 °C 87 % 1006,5 hPa 0,0 l/m² 2 min 0 min 379 W/m² 19,3 km/h (3 Bft) 95,74 %
09.02.2026 12:36 6,5 °C 10,0 °C 4,4 °C 87 % 1006,4 hPa 0,0 l/m² 2 min 0 min 357 W/m² 16,1 km/h (3 Bft) 95,74 %
09.02.2026 12:38 6,5 °C 11,1 °C 3,9 °C 86 % 1006,4 hPa 0,0 l/m² 2 min 0 min 344 W/m² 12,9 km/h (3 Bft) 93,62 %
09.02.2026 12:40 6,6 °C 11,1 °C 3,9 °C 86 % 1006,4 hPa 0,0 l/m² 2 min 0 min 350 W/m² 16,1 km/h (3 Bft) 95,65 %
09.02.2026 12:42 6,7 °C 11,1 °C 3,9 °C 86 % 1006,4 hPa 0,0 l/m² 2 min 0 min 352 W/m² 19,3 km/h (3 Bft) 95,74 %
09.02.2026 12:44 6,8 °C 11,1 °C 3,3 °C 86 % 1006,4 hPa 0,0 l/m² 2 min 0 min 332 W/m² 29,0 km/h (5 Bft) 95,74 %
09.02.2026 12:46 6,8 °C 11,1 °C 3,3 °C 85 % 1006,3 hPa 0,0 l/m² 2 min 0 min 312 W/m² 12,9 km/h (3 Bft) 93,62 %
09.02.2026 12:48 6,9 °C 11,1 °C 3,3 °C 85 % 1006,3 hPa 0,0 l/m² 2 min 0 min 313 W/m² 12,9 km/h (3 Bft) 93,62 %
09.02.2026 12:50 7,0 °C 10,6 °C 3,3 °C 84 % 1006,3 hPa 0,0 l/m² 2 min 0 min 306 W/m² 22,5 km/h (4 Bft) 95,74 %
09.02.2026 12:52 7,1 °C 11,1 °C 3,3 °C 84 % 1006,3 hPa 0,0 l/m² 2 min 0 min 319 W/m² 19,3 km/h (3 Bft) 95,74 %
09.02.2026 12:54 7,1 °C 11,1 °C 3,3 °C 84 % 1006,3 hPa 0,0 l/m² 2 min 0 min 324 W/m² 22,5 km/h (4 Bft) 95,74 %
09.02.2026 12:56 7,1 °C 11,1 °C 3,3 °C 83 % 1006,2 hPa 0,0 l/m² 2 min 0 min 336 W/m² 22,5 km/h (4 Bft) 91,49 %
09.02.2026 12:58 7,2 °C 11,7 °C 3,3 °C 83 % 1006,2 hPa 0,0 l/m² 2 min 0 min 344 W/m² 19,3 km/h (3 Bft) 95,74 %
09.02.2026 13:00 7,3 °C 11,7 °C 3,3 °C 83 % 1006,2 hPa 0,0 l/m² 2 min 0 min 332 W/m² 19,3 km/h (3 Bft) 97,87 %
09.02.2026 13:02 7,3 °C 11,7 °C 3,3 °C 83 % 1006,2 hPa 0,0 l/m² 2 min 0 min 327 W/m² 25,7 km/h (4 Bft) 97,83 %
09.02.2026 13:04 7,3 °C 11,1 °C 3,3 °C 82 % 1006,1 hPa 0,0 l/m² 2 min 0 min 307 W/m² 25,7 km/h (4 Bft) 97,87 %
09.02.2026 13:06 7,4 °C 11,1 °C 3,3 °C 82 % 1006,1 hPa 0,0 l/m² 2 min 0 min 320 W/m² 19,3 km/h (3 Bft) 97,87 %
09.02.2026 13:08 7,4 °C 11,1 °C 3,3 °C 82 % 1006,0 hPa 0,0 l/m² 2 min 0 min 338 W/m² 25,7 km/h (4 Bft) 97,87 %
09.02.2026 13:10 7,5 °C 11,1 °C 3,3 °C 82 % 1006,0 hPa 0,0 l/m² 2 min 0 min 329 W/m² 16,1 km/h (3 Bft) 97,87 %
09.02.2026 13:12 7,5 °C 11,1 °C 3,3 °C 81 % 1006,0 hPa 0,0 l/m² 2 min 0 min 337 W/m² 22,5 km/h (4 Bft) 97,87 %
09.02.2026 13:14 7,6 °C 10,6 °C 3,3 °C 81 % 1006,0 hPa 0,0 l/m² 2 min 0 min 332 W/m² 35,4 km/h (5 Bft) 97,87 %
09.02.2026 13:16 7,6 °C 11,1 °C 3,3 °C 80 % 1006,0 hPa 0,0 l/m² 2 min 0 min 320 W/m² 16,1 km/h (3 Bft) 97,87 %
09.02.2026 13:18 7,6 °C 11,1 °C 3,3 °C 80 % 1006,0 hPa 0,0 l/m² 2 min 0 min 323 W/m² 22,5 km/h (4 Bft) 95,74 %
09.02.2026 13:20 7,7 °C 11,7 °C 3,9 °C 80 % 1006,0 hPa 0,0 l/m² 2 min 0 min 339 W/m² 22,5 km/h (4 Bft) 97,87 %
09.02.2026 13:22 7,8 °C 11,7 °C 3,9 °C 80 % 1006,0 hPa 0,0 l/m² 2 min 0 min 338 W/m² 22,5 km/h (4 Bft) 97,87 %
09.02.2026 13:24 7,8 °C 11,1 °C 3,9 °C 80 % 1006,0 hPa 0,0 l/m² 2 min 0 min 327 W/m² 25,7 km/h (4 Bft) 100,00 %
09.02.2026 13:26 7,8 °C 11,1 °C 3,9 °C 79 % 1006,0 hPa 0,0 l/m² 2 min 0 min 334 W/m² 25,7 km/h (4 Bft) 97,83 %
09.02.2026 13:28 7,9 °C 11,7 °C 3,9 °C 79 % 1006,0 hPa 0,0 l/m² 2 min 0 min 350 W/m² 19,3 km/h (3 Bft) 100,00 %
09.02.2026 13:30 7,9 °C 11,7 °C 3,9 °C 79 % 1006,0 hPa 0,0 l/m² 2 min 0 min 350 W/m² 22,5 km/h (4 Bft) 97,87 %
09.02.2026 13:32 8,0 °C 11,7 °C 3,9 °C 79 % 1005,9 hPa 0,0 l/m² 2 min 0 min 351 W/m² 22,5 km/h (4 Bft) 100,00 %
09.02.2026 13:34 8,1 °C 12,2 °C 3,9 °C 79 % 1006,0 hPa 0,0 l/m² 2 min 0 min 347 W/m² 19,3 km/h (3 Bft) 100,00 %
09.02.2026 13:36 8,1 °C 12,2 °C 3,9 °C 79 % 1005,9 hPa 0,0 l/m² 2 min 0 min 341 W/m² 19,3 km/h (3 Bft) 100,00 %
09.02.2026 13:38 8,2 °C 12,2 °C 3,9 °C 79 % 1006,0 hPa 0,0 l/m² 2 min 0 min 329 W/m² 25,7 km/h (4 Bft) 100,00 %
09.02.2026 13:40 8,2 °C 11,7 °C 3,9 °C 78 % 1005,9 hPa 0,0 l/m² 2 min 0 min 309 W/m² 25,7 km/h (4 Bft) 100,00 %
09.02.2026 13:42 8,2 °C 11,7 °C 3,9 °C 78 % 1005,9 hPa 0,0 l/m² 2 min 0 min 312 W/m² 25,7 km/h (4 Bft) 100,00 %
09.02.2026 13:44 8,3 °C 11,1 °C 3,9 °C 78 % 1005,9 hPa 0,0 l/m² 2 min 0 min 320 W/m² 29,0 km/h (5 Bft) 97,87 %
09.02.2026 13:46 8,2 °C 11,1 °C 3,9 °C 77 % 1005,9 hPa 0,0 l/m² 2 min 0 min 323 W/m² 25,7 km/h (4 Bft) 97,87 %
09.02.2026 13:48 8,2 °C 11,1 °C 3,9 °C 77 % 1005,9 hPa 0,0 l/m² 2 min 0 min 311 W/m² 32,2 km/h (5 Bft) 97,83 %
09.02.2026 13:50 8,2 °C 10,6 °C 3,9 °C 77 % 1005,8 hPa 0,0 l/m² 2 min 0 min 269 W/m² 22,5 km/h (4 Bft) 97,87 %
09.02.2026 13:52 8,2 °C 10,6 °C 3,9 °C 77 % 1005,8 hPa 0,0 l/m² 2 min 0 min 293 W/m² 19,3 km/h (3 Bft) 97,87 %
09.02.2026 13:54 8,2 °C 11,1 °C 3,9 °C 78 % 1005,8 hPa 0,0 l/m² 2 min 0 min 306 W/m² 19,3 km/h (3 Bft) 97,87 %
09.02.2026 13:56 8,2 °C 10,6 °C 3,9 °C 78 % 1005,7 hPa 0,0 l/m² 2 min 0 min 272 W/m² 19,3 km/h (3 Bft) 95,74 %
09.02.2026 13:58 8,2 °C 10,6 °C 3,9 °C 78 % 1005,7 hPa 0,0 l/m² 2 min 0 min 255 W/m² 22,5 km/h (4 Bft) 95,74 %
09.02.2026 14:00 8,2 °C 10,0 °C 3,9 °C 78 % 1005,7 hPa 0,0 l/m² 2 min 0 min 242 W/m² 25,7 km/h (4 Bft) 95,74 %
09.02.2026 14:02 8,2 °C 10,0 °C 3,3 °C 78 % 1005,7 hPa 0,0 l/m² 2 min 0 min 227 W/m² 25,7 km/h (4 Bft) 95,74 %
09.02.2026 14:04 8,2 °C 9,4 °C 3,3 °C 78 % 1005,6 hPa 0,0 l/m² 2 min 0 min 212 W/m² 22,5 km/h (4 Bft) 97,62 %
09.02.2026 14:06 8,2 °C 8,9 °C 3,3 °C 77 % 1005,6 hPa 0,0 l/m² 2 min 0 min 196 W/m² 22,5 km/h (4 Bft) 97,87 %
09.02.2026 14:08 8,2 °C 8,9 °C 3,3 °C 77 % 1005,6 hPa 0,0 l/m² 2 min 0 min 188 W/m² 19,3 km/h (3 Bft) 98,11 %
09.02.2026 14:10 8,1 °C 8,3 °C 3,3 °C 77 % 1005,6 hPa 0,0 l/m² 0 min 0 min 182 W/m² 25,7 km/h (4 Bft) 97,14 %
09.02.2026 14:12 8,1 °C 8,3 °C 3,3 °C 77 % 1005,6 hPa 0,0 l/m² 0 min 0 min 179 W/m² 22,5 km/h (4 Bft) 93,62 %
09.02.2026 14:14 7,9 °C 8,3 °C 3,3 °C 77 % 1005,6 hPa 0,0 l/m² 0 min 0 min 181 W/m² 19,3 km/h (3 Bft) 97,73 %
09.02.2026 14:16 7,9 °C 8,3 °C 3,3 °C 77 % 1005,6 hPa 0,0 l/m² 2 min 0 min 186 W/m² 22,5 km/h (4 Bft) 97,87 %
09.02.2026 14:18 7,9 °C 8,3 °C 3,3 °C 77 % 1005,5 hPa 0,0 l/m² 2 min 0 min 186 W/m² 19,3 km/h (3 Bft) 95,74 %
09.02.2026 14:20 7,8 °C 8,3 °C 3,3 °C 78 % 1005,6 hPa 0,0 l/m² 2 min 0 min 187 W/m² 22,5 km/h (4 Bft) 97,83 %
09.02.2026 14:22 7,8 °C 8,3 °C 3,3 °C 78 % 1005,5 hPa 0,0 l/m² 2 min 0 min 186 W/m² 19,3 km/h (3 Bft) 97,87 %
09.02.2026 14:24 7,8 °C 8,3 °C 3,3 °C 78 % 1005,5 hPa 0,0 l/m² 2 min 0 min 188 W/m² 25,7 km/h (4 Bft) 93,62 %
09.02.2026 14:26 7,8 °C 8,3 °C 3,3 °C 78 % 1005,5 hPa 0,0 l/m² 2 min 0 min 185 W/m² 19,3 km/h (3 Bft) 97,87 %
09.02.2026 14:28 7,8 °C 8,3 °C 3,3 °C 78 % 1005,4 hPa 0,0 l/m² 2 min 0 min 186 W/m² 22,5 km/h (4 Bft) 97,87 %
09.02.2026 14:30 7,8 °C 8,3 °C 3,3 °C 78 % 1005,4 hPa 0,0 l/m² 2 min 0 min 186 W/m² 19,3 km/h (3 Bft) 97,87 %
09.02.2026 14:32 7,7 °C 8,3 °C 3,3 °C 78 % 1005,4 hPa 0,0 l/m² 2 min 0 min 182 W/m² 16,1 km/h (3 Bft) 100,00 %
09.02.2026 14:34 7,7 °C 8,3 °C 3,3 °C 78 % 1005,4 hPa 0,0 l/m² 2 min 0 min 180 W/m² 29,0 km/h (5 Bft) 97,87 %
09.02.2026 14:36 7,7 °C 8,3 °C 3,3 °C 78 % 1005,4 hPa 0,0 l/m² 2 min 0 min 189 W/m² 19,3 km/h (3 Bft) 93,62 %
09.02.2026 14:38 7,7 °C 8,3 °C 3,3 °C 78 % 1005,3 hPa 0,0 l/m² 2 min 0 min 192 W/m² 19,3 km/h (3 Bft) 95,74 %
09.02.2026 14:40 7,7 °C 8,3 °C 3,3 °C 78 % 1005,4 hPa 0,0 l/m² 2 min 0 min 184 W/m² 16,1 km/h (3 Bft) 97,83 %
09.02.2026 14:42 7,7 °C 8,3 °C 3,3 °C 78 % 1005,4 hPa 0,0 l/m² 2 min 0 min 180 W/m² 19,3 km/h (3 Bft) 91,49 %
09.02.2026 14:44 7,7 °C 8,3 °C 3,3 °C 78 % 1005,4 hPa 0,0 l/m² 2 min 0 min 174 W/m² 22,5 km/h (4 Bft) 97,87 %
09.02.2026 14:46 7,7 °C 7,8 °C 3,3 °C 78 % 1005,3 hPa 0,0 l/m² 2 min 0 min 170 W/m² 25,7 km/h (4 Bft) 95,74 %
09.02.2026 14:48 7,6 °C 7,8 °C 3,3 °C 78 % 1005,3 hPa 0,0 l/m² 2 min 0 min 167 W/m² 25,7 km/h (4 Bft) 95,74 %
09.02.2026 14:50 7,6 °C 7,8 °C 3,3 °C 78 % 1005,3 hPa 0,0 l/m² 2 min 0 min 165 W/m² 22,5 km/h (4 Bft) 97,87 %
09.02.2026 14:52 7,6 °C 7,8 °C 3,3 °C 78 % 1005,3 hPa 0,0 l/m² 2 min 0 min 166 W/m² 19,3 km/h (3 Bft) 97,87 %
09.02.2026 14:54 7,6 °C 7,8 °C 3,3 °C 78 % 1005,3 hPa 0,0 l/m² 2 min 0 min 173 W/m² 29,0 km/h (5 Bft) 97,87 %
09.02.2026 14:56 7,6 °C 8,3 °C 3,3 °C 78 % 1005,2 hPa 0,0 l/m² 2 min 0 min 172 W/m² 16,1 km/h (3 Bft) 97,87 %
09.02.2026 14:58 7,6 °C 8,3 °C 3,3 °C 79 % 1005,3 hPa 0,0 l/m² 2 min 0 min 173 W/m² 25,7 km/h (4 Bft) 98,11 %
09.02.2026 15:00 7,6 °C 8,3 °C 3,3 °C 79 % 1005,3 hPa 0,0 l/m² 2 min 0 min 164 W/m² 19,3 km/h (3 Bft) 97,83 %
09.02.2026 15:02 7,6 °C 7,8 °C 3,3 °C 79 % 1005,3 hPa 0,0 l/m² 2 min 0 min 158 W/m² 25,7 km/h (4 Bft) 97,87 %
09.02.2026 15:04 7,6 °C 7,8 °C 3,3 °C 79 % 1005,3 hPa 0,0 l/m² 2 min 0 min 156 W/m² 32,2 km/h (5 Bft) 97,62 %
09.02.2026 15:06 7,6 °C 7,8 °C 3,3 °C 79 % 1005,3 hPa 0,0 l/m² 2 min 0 min 160 W/m² 22,5 km/h (4 Bft) 97,87 %
09.02.2026 15:08 7,5 °C 7,8 °C 3,3 °C 78 % 1005,2 hPa 0,0 l/m² 2 min 0 min 164 W/m² 22,5 km/h (4 Bft) 97,87 %
09.02.2026 15:10 7,5 °C 8,3 °C 3,3 °C 78 % 1005,3 hPa 0,0 l/m² 2 min 0 min 169 W/m² 12,9 km/h (3 Bft) 97,87 %
09.02.2026 15:12 7,5 °C 8,3 °C 3,3 °C 79 % 1005,2 hPa 0,0 l/m² 2 min 0 min 168 W/m² 22,5 km/h (4 Bft) 97,87 %
09.02.2026 15:14 7,5 °C 7,8 °C 3,3 °C 79 % 1005,2 hPa 0,0 l/m² 2 min 0 min 169 W/m² 32,2 km/h (5 Bft) 100,00 %
09.02.2026 15:16 7,4 °C 7,8 °C 2,8 °C 78 % 1005,2 hPa 0,0 l/m² 2 min 0 min 174 W/m² 22,5 km/h (4 Bft) 97,87 %
09.02.2026 15:18 7,4 °C 7,8 °C 2,8 °C 78 % 1005,2 hPa 0,0 l/m² 2 min 0 min 166 W/m² 22,5 km/h (4 Bft) 100,00 %
09.02.2026 15:20 7,4 °C 7,8 °C 2,8 °C 78 % 1005,2 hPa 0,0 l/m² 2 min 0 min 160 W/m² 29,0 km/h (5 Bft) 100,00 %
09.02.2026 15:22 7,4 °C 7,8 °C 2,8 °C 78 % 1005,2 hPa 0,0 l/m² 2 min 0 min 151 W/m² 22,5 km/h (4 Bft) 100,00 %
09.02.2026 15:24 7,4 °C 7,8 °C 2,8 °C 78 % 1005,2 hPa 0,0 l/m² 2 min 0 min 147 W/m² 19,3 km/h (3 Bft) 97,87 %
09.02.2026 15:26 7,4 °C 7,8 °C 2,8 °C 78 % 1005,1 hPa 0,0 l/m² 2 min 0 min 145 W/m² 19,3 km/h (3 Bft) 97,87 %
09.02.2026 15:28 7,4 °C 7,8 °C 2,8 °C 78 % 1005,1 hPa 0,0 l/m² 2 min 0 min 143 W/m² 25,7 km/h (4 Bft) 100,00 %
09.02.2026 15:30 7,4 °C 7,8 °C 2,8 °C 78 % 1005,1 hPa 0,0 l/m² 2 min 0 min 145 W/m² 25,7 km/h (4 Bft) 100,00 %
09.02.2026 15:32 7,3 °C 7,8 °C 2,8 °C 78 % 1005,1 hPa 0,0 l/m² 2 min 0 min 143 W/m² 19,3 km/h (3 Bft) 100,00 %
09.02.2026 15:34 7,3 °C 7,8 °C 2,8 °C 79 % 1005,1 hPa 0,0 l/m² 2 min 0 min 139 W/m² 22,5 km/h (4 Bft) 95,74 %
09.02.2026 15:36 7,3 °C 7,8 °C 2,8 °C 79 % 1005,1 hPa 0,0 l/m² 2 min 0 min 135 W/m² 16,1 km/h (3 Bft) 95,74 %
09.02.2026 15:38 7,3 °C 7,8 °C 2,8 °C 79 % 1005,1 hPa 0,0 l/m² 2 min 0 min 132 W/m² 22,5 km/h (4 Bft) 97,87 %
09.02.2026 15:40 7,3 °C 7,2 °C 2,8 °C 79 % 1005,0 hPa 0,0 l/m² 2 min 0 min 126 W/m² 19,3 km/h (3 Bft) 97,56 %
09.02.2026 15:42 7,3 °C 7,2 °C 2,8 °C 79 % 1005,0 hPa 0,0 l/m² 2 min 0 min 123 W/m² 16,1 km/h (3 Bft) 97,87 %
09.02.2026 15:44 7,4 °C 7,2 °C 2,8 °C 79 % 1005,0 hPa 0,0 l/m² 0 min 0 min 119 W/m² 19,3 km/h (3 Bft) 97,87 %
09.02.2026 15:46 7,3 °C 7,2 °C 2,8 °C 79 % 1004,9 hPa 0,0 l/m² 0 min 0 min 113 W/m² 16,1 km/h (3 Bft) 97,87 %
09.02.2026 15:48 7,3 °C 7,2 °C 2,8 °C 79 % 1005,0 hPa 0,0 l/m² 0 min 0 min 111 W/m² 19,3 km/h (3 Bft) 97,87 %
09.02.2026 15:50 7,3 °C 7,2 °C 2,8 °C 79 % 1005,0 hPa 0,0 l/m² 0 min 0 min 106 W/m² 19,3 km/h (3 Bft) 97,83 %
09.02.2026 15:52 7,3 °C 7,2 °C 2,8 °C 79 % 1005,0 hPa 0,0 l/m² 0 min 0 min 103 W/m² 22,5 km/h (4 Bft) 98,11 %
09.02.2026 15:54 7,3 °C 7,2 °C 2,8 °C 79 % 1004,9 hPa 0,0 l/m² 0 min 0 min 98 W/m² 25,7 km/h (4 Bft) 97,87 %
09.02.2026 15:56 7,3 °C 7,2 °C 2,8 °C 79 % 1004,9 hPa 0,0 l/m² 0 min 0 min 94 W/m² 25,7 km/h (4 Bft) 97,87 %
09.02.2026 15:58 7,3 °C 7,2 °C 2,8 °C 79 % 1004,9 hPa 0,0 l/m² 0 min 0 min 90 W/m² 16,1 km/h (3 Bft) 97,87 %
09.02.2026 16:00 7,3 °C 7,2 °C 2,8 °C 79 % 1004,9 hPa 0,0 l/m² 0 min 0 min 87 W/m² 19,3 km/h (3 Bft) 95,74 %
09.02.2026 16:02 7,3 °C 7,2 °C 2,8 °C 79 % 1004,9 hPa 0,0 l/m² 0 min 0 min 84 W/m² 9,7 km/h (2 Bft) 97,87 %
09.02.2026 16:04 7,3 °C 7,2 °C 2,8 °C 79 % 1004,9 hPa 0,0 l/m² 0 min 0 min 81 W/m² 16,1 km/h (3 Bft) 100,00 %
09.02.2026 16:06 7,3 °C 6,7 °C 2,8 °C 79 % 1004,9 hPa 0,0 l/m² 0 min 0 min 77 W/m² 22,5 km/h (4 Bft) 95,74 %
09.02.2026 16:08 7,2 °C 6,7 °C 2,8 °C 79 % 1004,9 hPa 0,0 l/m² 0 min 0 min 75 W/m² 16,1 km/h (3 Bft) 93,62 %
09.02.2026 16:10 7,2 °C 6,7 °C 2,8 °C 79 % 1004,8 hPa 0,0 l/m² 0 min 0 min 71 W/m² 12,9 km/h (3 Bft) 97,87 %
09.02.2026 16:12 7,2 °C 6,7 °C 2,8 °C 79 % 1004,8 hPa 0,0 l/m² 0 min 0 min 68 W/m² 12,9 km/h (3 Bft) 95,74 %
09.02.2026 16:14 7,2 °C 6,7 °C 2,8 °C 79 % 1004,9 hPa 0,0 l/m² 0 min 0 min 65 W/m² 16,1 km/h (3 Bft) 97,83 %
09.02.2026 16:16 7,2 °C 6,7 °C 2,8 °C 80 % 1004,8 hPa 0,0 l/m² 0 min 0 min 62 W/m² 16,1 km/h (3 Bft) 97,87 %
09.02.2026 16:18 7,2 °C 6,7 °C 2,8 °C 80 % 1004,9 hPa 0,0 l/m² 0 min 0 min 60 W/m² 12,9 km/h (3 Bft) 93,62 %
09.02.2026 16:20 7,1 °C 6,7 °C 2,8 °C 80 % 1004,8 hPa 0,0 l/m² 0 min 0 min 58 W/m² 12,9 km/h (3 Bft) 97,87 %
09.02.2026 16:22 7,1 °C 6,7 °C 2,2 °C 80 % 1004,8 hPa 0,0 l/m² 0 min 0 min 56 W/m² 6,4 km/h (2 Bft) 97,87 %
09.02.2026 16:24 7,1 °C 6,7 °C 2,2 °C 80 % 1004,7 hPa 0,0 l/m² 0 min 0 min 54 W/m² 16,1 km/h (3 Bft) 100,00 %
09.02.2026 16:26 7,1 °C 6,7 °C 2,2 °C 80 % 1004,7 hPa 0,0 l/m² 0 min 0 min 53 W/m² 12,9 km/h (3 Bft) 100,00 %
09.02.2026 16:28 7,1 °C 6,7 °C 2,2 °C 80 % 1004,7 hPa 0,0 l/m² 0 min 0 min 50 W/m² 16,1 km/h (3 Bft) 100,00 %
09.02.2026 16:30 7,0 °C 6,1 °C 2,2 °C 80 % 1004,7 hPa 0,0 l/m² 0 min 0 min 49 W/m² 22,5 km/h (4 Bft) 100,00 %
09.02.2026 16:32 7,0 °C 6,1 °C 2,2 °C 80 % 1004,7 hPa 0,0 l/m² 0 min 0 min 47 W/m² 19,3 km/h (3 Bft) 97,87 %
09.02.2026 16:34 6,9 °C 6,1 °C 2,2 °C 81 % 1004,6 hPa 0,0 l/m² 0 min 0 min 45 W/m² 22,5 km/h (4 Bft) 97,87 %
09.02.2026 16:36 6,9 °C 6,1 °C 2,2 °C 80 % 1004,6 hPa 0,0 l/m² 0 min 0 min 43 W/m² 16,1 km/h (3 Bft) 95,65 %
09.02.2026 16:38 6,9 °C 6,1 °C 2,2 °C 81 % 1004,6 hPa 0,0 l/m² 0 min 0 min 41 W/m² 12,9 km/h (3 Bft) 97,87 %
09.02.2026 16:40 6,9 °C 6,1 °C 2,2 °C 81 % 1004,6 hPa 0,0 l/m² 0 min 0 min 40 W/m² 19,3 km/h (3 Bft) 95,74 %
09.02.2026 16:42 6,9 °C 6,1 °C 2,2 °C 81 % 1004,5 hPa 0,0 l/m² 0 min 0 min 38 W/m² 16,1 km/h (3 Bft) 100,00 %
09.02.2026 16:44 6,8 °C 6,1 °C 2,2 °C 81 % 1004,6 hPa 0,0 l/m² 0 min 0 min 36 W/m² 16,1 km/h (3 Bft) 95,74 %
09.02.2026 16:46 6,8 °C 6,1 °C 2,2 °C 81 % 1004,5 hPa 0,0 l/m² 0 min 0 min 34 W/m² 25,7 km/h (4 Bft) 93,62 %
09.02.2026 16:48 6,8 °C 6,1 °C 2,2 °C 81 % 1004,6 hPa 0,0 l/m² 0 min 0 min 33 W/m² 19,3 km/h (3 Bft) 95,74 %
09.02.2026 16:50 6,8 °C 6,1 °C 2,2 °C 81 % 1004,6 hPa 0,0 l/m² 0 min 0 min 31 W/m² 22,5 km/h (4 Bft) 93,62 %
09.02.2026 16:52 6,7 °C 6,1 °C 2,2 °C 81 % 1004,5 hPa 0,0 l/m² 0 min 0 min 28 W/m² 16,1 km/h (3 Bft) 95,74 %
09.02.2026 16:54 6,7 °C 6,1 °C 2,2 °C 81 % 1004,5 hPa 0,0 l/m² 0 min 0 min 27 W/m² 19,3 km/h (3 Bft) 95,74 %
09.02.2026 16:56 6,7 °C 6,1 °C 2,2 °C 81 % 1004,5 hPa 0,0 l/m² 0 min 0 min 25 W/m² 19,3 km/h (3 Bft) 95,65 %
09.02.2026 16:58 6,7 °C 6,1 °C 2,2 °C 81 % 1004,4 hPa 0,0 l/m² 0 min 0 min 24 W/m² 19,3 km/h (3 Bft) 93,62 %
09.02.2026 17:03 6,6 °C 6,1 °C 2,2 °C 81 % 1004,4 hPa 0,0 l/m² 0 min 0 min 21 W/m² 19,3 km/h (3 Bft) 98,31 %
09.02.2026 17:04 6,6 °C 5,6 °C 2,2 °C 81 % 1004,4 hPa 0,0 l/m² 0 min 0 min 19 W/m² 12,9 km/h (3 Bft) 91,30 %
09.02.2026 17:06 6,6 °C 5,6 °C 2,2 °C 81 % 1004,4 hPa 0,0 l/m² 0 min 0 min 18 W/m² 16,1 km/h (3 Bft) 95,74 %
09.02.2026 17:08 6,6 °C 5,6 °C 2,2 °C 81 % 1004,4 hPa 0,0 l/m² 0 min 0 min 17 W/m² 29,0 km/h (5 Bft) 95,74 %
09.02.2026 17:10 6,5 °C 5,6 °C 2,2 °C 81 % 1004,5 hPa 0,0 l/m² 0 min 0 min 15 W/m² 22,5 km/h (4 Bft) 94,29 %
09.02.2026 17:12 6,5 °C 5,6 °C 1,7 °C 81 % 1004,4 hPa 0,0 l/m² 0 min 0 min 14 W/m² 22,5 km/h (4 Bft) 93,22 %
09.02.2026 17:14 6,5 °C 5,6 °C 1,7 °C 81 % 1004,5 hPa 0,0 l/m² 0 min 0 min 13 W/m² 16,1 km/h (3 Bft) 93,62 %
09.02.2026 17:16 6,5 °C 5,6 °C 2,2 °C 81 % 1004,5 hPa 0,0 l/m² 0 min 0 min 12 W/m² 22,5 km/h (4 Bft) 100,00 %
09.02.2026 17:18 6,5 °C 5,6 °C 1,7 °C 81 % 1004,5 hPa 0,0 l/m² 0 min 0 min 12 W/m² 12,9 km/h (3 Bft) 95,74 %
09.02.2026 17:20 6,4 °C 5,6 °C 1,7 °C 81 % 1004,5 hPa 0,0 l/m² 0 min 0 min 11 W/m² 22,5 km/h (4 Bft) 97,87 %
09.02.2026 17:22 6,4 °C 5,6 °C 1,7 °C 81 % 1004,4 hPa 0,0 l/m² 0 min 0 min 9 W/m² 22,5 km/h (4 Bft) 97,87 %
09.02.2026 17:24 6,4 °C 5,6 °C 1,7 °C 81 % 1004,5 hPa 0,0 l/m² 0 min 0 min 9 W/m² 22,5 km/h (4 Bft) 100,00 %
09.02.2026 17:26 6,3 °C 5,6 °C 1,7 °C 81 % 1004,4 hPa 0,0 l/m² 0 min 0 min 7 W/m² 22,5 km/h (4 Bft) 97,87 %
09.02.2026 17:28 6,3 °C 5,6 °C 1,7 °C 81 % 1004,4 hPa 0,0 l/m² 0 min 0 min 6 W/m² 22,5 km/h (4 Bft) 95,74 %
09.02.2026 17:30 6,3 °C 5,6 °C 1,7 °C 81 % 1004,4 hPa 0,0 l/m² 0 min 0 min 5 W/m² 22,5 km/h (4 Bft) 97,87 %
09.02.2026 17:32 6,3 °C 5,6 °C 1,7 °C 81 % 1004,4 hPa 0,0 l/m² 0 min 0 min 5 W/m² 25,7 km/h (4 Bft) 100,00 %
09.02.2026 17:34 6,3 °C 5,6 °C 1,7 °C 81 % 1004,4 hPa 0,0 l/m² 0 min 0 min 1 W/m² 19,3 km/h (3 Bft) 100,00 %
09.02.2026 17:36 6,3 °C 5,6 °C 1,7 °C 81 % 1004,4 hPa 0,0 l/m² 0 min 0 min 0 W/m² 22,5 km/h (4 Bft) 93,62 %
09.02.2026 17:38 6,2 °C 5,6 °C 1,7 °C 81 % 1004,3 hPa 0,0 l/m² 0 min 0 min 0 W/m² 19,3 km/h (3 Bft) 97,87 %
09.02.2026 17:40 6,2 °C 5,6 °C 1,7 °C 81 % 1004,4 hPa 0,0 l/m² 0 min 0 min 0 W/m² 19,3 km/h (3 Bft) 100,00 %
09.02.2026 17:42 6,2 °C 5,6 °C 1,7 °C 81 % 1004,4 hPa 0,0 l/m² 0 min 0 min 0 W/m² 22,5 km/h (4 Bft) 100,00 %
09.02.2026 17:44 6,2 °C 5,6 °C 1,7 °C 81 % 1004,4 hPa 0,0 l/m² 0 min 0 min 0 W/m² 22,5 km/h (4 Bft) 97,87 %
09.02.2026 17:46 6,2 °C 5,6 °C 1,7 °C 81 % 1004,4 hPa 0,0 l/m² 0 min 0 min 0 W/m² 19,3 km/h (3 Bft) 100,00 %
09.02.2026 17:48 6,1 °C 5,6 °C 1,7 °C 81 % 1004,4 hPa 0,0 l/m² 0 min 0 min 0 W/m² 22,5 km/h (4 Bft) 100,00 %
09.02.2026 17:50 6,1 °C 5,0 °C 1,7 °C 81 % 1004,3 hPa 0,0 l/m² 0 min 0 min 0 W/m² 22,5 km/h (4 Bft) 100,00 %
09.02.2026 17:52 6,1 °C 5,0 °C 1,7 °C 81 % 1004,4 hPa 0,0 l/m² 0 min 0 min 0 W/m² 19,3 km/h (3 Bft) 100,00 %
09.02.2026 17:54 6,1 °C 5,0 °C 1,7 °C 81 % 1004,3 hPa 0,0 l/m² 0 min 0 min 0 W/m² 19,3 km/h (3 Bft) 97,87 %
09.02.2026 17:56 6,0 °C 5,0 °C 1,7 °C 82 % 1004,3 hPa 0,0 l/m² 0 min 0 min 0 W/m² 22,5 km/h (4 Bft) 97,87 %
09.02.2026 17:58 6,0 °C 5,0 °C 1,7 °C 82 % 1004,3 hPa 0,0 l/m² 0 min 0 min 0 W/m² 22,5 km/h (4 Bft) 100,00 %
09.02.2026 18:00 6,0 °C 5,0 °C 1,7 °C 82 % 1004,3 hPa 0,0 l/m² 0 min 0 min 0 W/m² 25,7 km/h (4 Bft) 100,00 %
09.02.2026 18:02 6,0 °C 5,0 °C 1,1 °C 82 % 1004,3 hPa 0,0 l/m² 0 min 0 min 0 W/m² 25,7 km/h (4 Bft) 93,62 %
09.02.2026 18:04 5,9 °C 5,0 °C 1,1 °C 82 % 1004,1 hPa 0,0 l/m² 0 min 0 min 0 W/m² 16,1 km/h (3 Bft) 100,00 %
09.02.2026 18:07 5,9 °C 5,0 °C 1,1 °C 82 % 1004,1 hPa 0,0 l/m² 0 min 0 min 0 W/m² 22,5 km/h (4 Bft) 98,57 %
09.02.2026 18:08 5,9 °C 5,0 °C 1,1 °C 82 % 1004,1 hPa 0,0 l/m² 0 min 0 min 0 W/m² 22,5 km/h (4 Bft) 93,33 %
09.02.2026 18:12 5,8 °C 5,0 °C 1,1 °C 82 % 1004,0 hPa 0,0 l/m² 0 min 0 min 0 W/m² 22,5 km/h (4 Bft) 98,21 %
09.02.2026 18:14 5,8 °C 5,0 °C 1,1 °C 82 % 1004,1 hPa 0,0 l/m² 0 min 0 min 0 W/m² 19,3 km/h (3 Bft) 94,00 %
09.02.2026 18:16 5,8 °C 5,0 °C 1,1 °C 82 % 1004,0 hPa 0,0 l/m² 0 min 0 min 0 W/m² 29,0 km/h (5 Bft) 97,83 %
09.02.2026 18:18 5,8 °C 5,0 °C 1,1 °C 82 % 1004,0 hPa 0,0 l/m² 0 min 0 min 0 W/m² 25,7 km/h (4 Bft) 95,74 %
09.02.2026 18:20 5,8 °C 5,0 °C 1,1 °C 82 % 1004,1 hPa 0,0 l/m² 0 min 0 min 0 W/m² 16,1 km/h (3 Bft) 95,74 %
09.02.2026 18:22 5,7 °C 5,0 °C 1,1 °C 82 % 1004,0 hPa 0,0 l/m² 0 min 0 min 0 W/m² 22,5 km/h (4 Bft) 97,87 %
09.02.2026 18:24 5,7 °C 5,0 °C 1,1 °C 82 % 1004,0 hPa 0,0 l/m² 0 min 0 min 0 W/m² 16,1 km/h (3 Bft) 97,87 %
09.02.2026 18:26 5,7 °C 5,0 °C 1,1 °C 82 % 1004,0 hPa 0,0 l/m² 0 min 0 min 0 W/m² 22,5 km/h (4 Bft) 97,87 %
09.02.2026 18:28 5,7 °C 5,0 °C 1,1 °C 82 % 1004,0 hPa 0,0 l/m² 0 min 0 min 0 W/m² 19,3 km/h (3 Bft) 94,29 %
09.02.2026 18:30 5,7 °C 5,0 °C 1,1 °C 82 % 1003,9 hPa 0,0 l/m² 0 min 0 min 0 W/m² 22,5 km/h (4 Bft) 98,31 %
09.02.2026 18:32 5,7 °C 5,0 °C 1,1 °C 82 % 1003,9 hPa 0,0 l/m² 0 min 0 min 0 W/m² 19,3 km/h (3 Bft) 97,14 %
09.02.2026 18:34 5,6 °C 5,0 °C 1,1 °C 82 % 1003,9 hPa 0,0 l/m² 0 min 0 min 0 W/m² 19,3 km/h (3 Bft) 95,74 %
09.02.2026 18:36 5,6 °C 5,0 °C 1,1 °C 82 % 1003,9 hPa 0,0 l/m² 0 min 0 min 0 W/m² 19,3 km/h (3 Bft) 95,74 %
09.02.2026 18:38 5,6 °C 5,0 °C 1,1 °C 82 % 1003,9 hPa 0,0 l/m² 0 min 0 min 0 W/m² 16,1 km/h (3 Bft) 93,62 %
09.02.2026 18:40 5,6 °C 4,4 °C 1,1 °C 82 % 1003,8 hPa 0,0 l/m² 0 min 0 min 0 W/m² 16,1 km/h (3 Bft) 52,38 %
09.02.2026 18:42 5,6 °C 4,4 °C 1,1 °C 83 % 1003,8 hPa 0,0 l/m² 0 min 0 min 0 W/m² 16,1 km/h (3 Bft) 95,65 %
09.02.2026 18:44 5,6 °C 4,4 °C 1,1 °C 83 % 1003,8 hPa 0,0 l/m² 0 min 0 min 0 W/m² 16,1 km/h (3 Bft) 95,74 %
09.02.2026 18:46 5,6 °C 4,4 °C 1,1 °C 83 % 1003,8 hPa 0,0 l/m² 0 min 0 min 0 W/m² 6,4 km/h (2 Bft) 95,74 %
09.02.2026 18:48 5,5 °C 4,4 °C 1,1 °C 83 % 1003,8 hPa 0,0 l/m² 0 min 0 min 0 W/m² 12,9 km/h (3 Bft) 95,74 %
09.02.2026 18:50 5,5 °C 4,4 °C 0,6 °C 83 % 1003,7 hPa 0,0 l/m² 0 min 0 min 0 W/m² 16,1 km/h (3 Bft) 95,74 %
09.02.2026 18:52 5,4 °C 4,4 °C 0,6 °C 83 % 1003,7 hPa 0,0 l/m² 0 min 0 min 0 W/m² 19,3 km/h (3 Bft) 95,74 %
09.02.2026 18:54 5,4 °C 4,4 °C 0,6 °C 83 % 1003,7 hPa 0,0 l/m² 0 min 0 min 0 W/m² 16,1 km/h (3 Bft) 97,87 %
09.02.2026 18:56 5,4 °C 4,4 °C 0,6 °C 83 % 1003,7 hPa 0,0 l/m² 0 min 0 min 0 W/m² 16,1 km/h (3 Bft) 95,74 %
09.02.2026 18:58 5,4 °C 4,4 °C 0,6 °C 83 % 1003,7 hPa 0,0 l/m² 0 min 0 min 0 W/m² 16,1 km/h (3 Bft) 97,87 %
09.02.2026 19:00 5,3 °C 4,4 °C 0,6 °C 83 % 1003,7 hPa 0,0 l/m² 0 min 0 min 0 W/m² 19,3 km/h (3 Bft) 97,87 %
09.02.2026 19:02 5,3 °C 4,4 °C 0,6 °C 84 % 1003,7 hPa 0,0 l/m² 0 min 0 min 0 W/m² 22,5 km/h (4 Bft) 97,87 %
09.02.2026 19:04 5,3 °C 4,4 °C 0,6 °C 84 % 1003,7 hPa 0,0 l/m² 0 min 0 min 0 W/m² 19,3 km/h (3 Bft) 97,83 %
09.02.2026 19:06 5,3 °C 4,4 °C 0,6 °C 84 % 1003,7 hPa 0,0 l/m² 0 min 0 min 0 W/m² 19,3 km/h (3 Bft) 96,61 %
09.02.2026 19:08 5,3 °C 4,4 °C 0,6 °C 84 % 1003,7 hPa 0,0 l/m² 0 min 0 min 0 W/m² 12,9 km/h (3 Bft) 100,00 %
09.02.2026 19:10 5,3 °C 4,4 °C 0,6 °C 84 % 1003,7 hPa 0,0 l/m² 0 min 0 min 0 W/m² 16,1 km/h (3 Bft) 97,87 %
09.02.2026 19:12 5,2 °C 4,4 °C 0,6 °C 84 % 1003,7 hPa 0,0 l/m² 0 min 0 min 0 W/m² 19,3 km/h (3 Bft) 100,00 %
09.02.2026 19:14 5,2 °C 4,4 °C 0,6 °C 84 % 1003,7 hPa 0,0 l/m² 0 min 0 min 0 W/m² 19,3 km/h (3 Bft) 100,00 %
09.02.2026 19:16 5,2 °C 4,4 °C 0,6 °C 84 % 1003,6 hPa 0,0 l/m² 0 min 0 min 0 W/m² 22,5 km/h (4 Bft) 97,87 %
09.02.2026 19:18 5,2 °C 4,4 °C 0,6 °C 84 % 1003,7 hPa 0,0 l/m² 0 min 0 min 0 W/m² 22,5 km/h (4 Bft) 100,00 %
09.02.2026 19:20 5,2 °C 4,4 °C 0,6 °C 84 % 1003,6 hPa 0,0 l/m² 0 min 0 min 0 W/m² 22,5 km/h (4 Bft) 100,00 %
09.02.2026 19:22 5,1 °C 4,4 °C 0,6 °C 84 % 1003,6 hPa 0,0 l/m² 0 min 0 min 0 W/m² 12,9 km/h (3 Bft) 100,00 %
09.02.2026 19:24 5,1 °C 4,4 °C 0,6 °C 84 % 1003,7 hPa 0,0 l/m² 0 min 0 min 0 W/m² 16,1 km/h (3 Bft) 97,87 %
09.02.2026 19:26 5,1 °C 4,4 °C 0,6 °C 84 % 1003,6 hPa 0,0 l/m² 0 min 0 min 0 W/m² 22,5 km/h (4 Bft) 97,83 %
09.02.2026 19:28 5,1 °C 4,4 °C 0,6 °C 84 % 1003,6 hPa 0,0 l/m² 0 min 0 min 0 W/m² 19,3 km/h (3 Bft) 100,00 %
09.02.2026 19:30 5,1 °C 4,4 °C 0,6 °C 85 % 1003,6 hPa 0,0 l/m² 0 min 0 min 0 W/m² 12,9 km/h (3 Bft) 97,87 %
09.02.2026 19:32 5,1 °C 4,4 °C 0,6 °C 84 % 1003,7 hPa 0,0 l/m² 0 min 0 min 0 W/m² 16,1 km/h (3 Bft) 97,87 %
09.02.2026 19:34 5,0 °C 4,4 °C 0,6 °C 84 % 1003,6 hPa 0,0 l/m² 0 min 0 min 0 W/m² 22,5 km/h (4 Bft) 95,74 %
09.02.2026 19:36 5,0 °C 3,9 °C 0,6 °C 84 % 1003,7 hPa 0,0 l/m² 0 min 0 min 0 W/m² 16,1 km/h (3 Bft) 97,87 %
09.02.2026 19:38 4,9 °C 3,9 °C 0,6 °C 85 % 1003,7 hPa 0,0 l/m² 0 min 0 min 0 W/m² 16,1 km/h (3 Bft) 95,74 %
09.02.2026 19:40 4,9 °C 3,9 °C 0,6 °C 85 % 1003,6 hPa 0,0 l/m² 0 min 0 min 0 W/m² 19,3 km/h (3 Bft) 97,87 %
09.02.2026 19:42 4,9 °C 3,9 °C 0,6 °C 85 % 1003,5 hPa 0,0 l/m² 0 min 0 min 0 W/m² 22,5 km/h (4 Bft) 97,87 %
09.02.2026 19:44 4,9 °C 3,9 °C 0,6 °C 85 % 1003,5 hPa 0,0 l/m² 0 min 0 min 0 W/m² 19,3 km/h (3 Bft) 95,74 %
09.02.2026 19:46 4,9 °C 3,9 °C 0,6 °C 85 % 1003,6 hPa 0,0 l/m² 0 min 0 min 0 W/m² 22,5 km/h (4 Bft) 97,87 %
09.02.2026 19:48 4,9 °C 3,9 °C 0,6 °C 85 % 1003,5 hPa 0,0 l/m² 0 min 0 min 0 W/m² 16,1 km/h (3 Bft) 97,87 %
09.02.2026 19:50 4,9 °C 3,9 °C 0,6 °C 85 % 1003,6 hPa 0,0 l/m² 0 min 0 min 0 W/m² 16,1 km/h (3 Bft) 95,65 %
09.02.2026 19:52 4,9 °C 3,9 °C 0,6 °C 85 % 1003,5 hPa 0,0 l/m² 0 min 0 min 0 W/m² 12,9 km/h (3 Bft) 95,74 %
09.02.2026 19:54 4,8 °C 3,9 °C 0,6 °C 85 % 1003,5 hPa 0,0 l/m² 0 min 0 min 0 W/m² 22,5 km/h (4 Bft) 97,87 %
09.02.2026 19:56 4,8 °C 3,9 °C 0,6 °C 85 % 1003,5 hPa 0,0 l/m² 0 min 0 min 0 W/m² 19,3 km/h (3 Bft) 95,74 %
09.02.2026 19:58 4,8 °C 3,9 °C 0,6 °C 85 % 1003,5 hPa 0,0 l/m² 0 min 0 min 0 W/m² 16,1 km/h (3 Bft) 97,87 %
09.02.2026 20:00 4,8 °C 3,9 °C 0,6 °C 85 % 1003,5 hPa 0,0 l/m² 0 min 0 min 0 W/m² 16,1 km/h (3 Bft) 97,87 %
09.02.2026 20:02 4,8 °C 3,9 °C 0,6 °C 85 % 1003,5 hPa 0,0 l/m² 0 min 0 min 0 W/m² 16,1 km/h (3 Bft) 97,87 %
09.02.2026 20:04 4,8 °C 3,9 °C 0,6 °C 85 % 1003,5 hPa 0,0 l/m² 0 min 0 min 0 W/m² 19,3 km/h (3 Bft) 97,87 %
09.02.2026 20:06 4,8 °C 3,9 °C 0,6 °C 85 % 1003,5 hPa 0,0 l/m² 0 min 0 min 0 W/m² 16,1 km/h (3 Bft) 97,87 %
09.02.2026 20:08 4,8 °C 3,9 °C 0,6 °C 85 % 1003,4 hPa 0,0 l/m² 0 min 0 min 0 W/m² 19,3 km/h (3 Bft) 93,75 %
09.02.2026 20:10 4,7 °C 3,9 °C 0,6 °C 85 % 1003,5 hPa 0,0 l/m² 0 min 0 min 0 W/m² 16,1 km/h (3 Bft) 93,62 %
09.02.2026 20:12 4,7 °C 3,9 °C 0,6 °C 86 % 1003,4 hPa 0,0 l/m² 0 min 0 min 0 W/m² 19,3 km/h (3 Bft) 95,65 %
09.02.2026 20:14 4,7 °C 3,9 °C 0,6 °C 86 % 1003,4 hPa 0,0 l/m² 0 min 0 min 0 W/m² 22,5 km/h (4 Bft) 97,87 %
09.02.2026 20:16 4,7 °C 3,9 °C 0,6 °C 86 % 1003,5 hPa 0,0 l/m² 0 min 0 min 0 W/m² 16,1 km/h (3 Bft) 97,87 %
09.02.2026 20:18 4,7 °C 3,9 °C 0,6 °C 86 % 1003,5 hPa 0,0 l/m² 0 min 0 min 0 W/m² 19,3 km/h (3 Bft) 97,87 %
09.02.2026 20:20 4,7 °C 3,9 °C 0,6 °C 86 % 1003,5 hPa 0,0 l/m² 0 min 0 min 0 W/m² 19,3 km/h (3 Bft) 97,87 %
09.02.2026 20:22 4,7 °C 3,9 °C 0,6 °C 86 % 1003,5 hPa 0,0 l/m² 0 min 0 min 0 W/m² 16,1 km/h (3 Bft) 93,62 %
09.02.2026 20:24 4,7 °C 3,9 °C 0,0 °C 86 % 1003,5 hPa 0,0 l/m² 0 min 0 min 0 W/m² 12,9 km/h (3 Bft) 97,87 %
09.02.2026 20:26 4,7 °C 3,9 °C 0,0 °C 86 % 1003,5 hPa 0,0 l/m² 0 min 0 min 0 W/m² 16,1 km/h (3 Bft) 93,62 %
09.02.2026 20:28 4,7 °C 3,9 °C 0,0 °C 86 % 1003,5 hPa 0,0 l/m² 0 min 0 min 0 W/m² 22,5 km/h (4 Bft) 97,87 %
09.02.2026 20:30 4,6 °C 3,9 °C 0,0 °C 86 % 1003,4 hPa 0,0 l/m² 0 min 0 min 0 W/m² 22,5 km/h (4 Bft) 93,62 %
09.02.2026 20:32 4,6 °C 3,9 °C 0,0 °C 86 % 1003,5 hPa 0,0 l/m² 0 min 0 min 0 W/m² 16,1 km/h (3 Bft) 93,62 %
09.02.2026 20:34 4,6 °C 3,9 °C 0,0 °C 86 % 1003,5 hPa 0,0 l/m² 0 min 0 min 0 W/m² 12,9 km/h (3 Bft) 97,83 %
09.02.2026 20:36 4,6 °C 3,9 °C 0,0 °C 86 % 1003,5 hPa 0,0 l/m² 0 min 0 min 0 W/m² 16,1 km/h (3 Bft) 93,62 %
09.02.2026 20:38 4,6 °C 3,9 °C 0,0 °C 86 % 1003,5 hPa 0,0 l/m² 0 min 0 min 0 W/m² 16,1 km/h (3 Bft) 93,62 %
09.02.2026 20:40 4,6 °C 3,9 °C 0,0 °C 86 % 1003,5 hPa 0,0 l/m² 0 min 0 min 0 W/m² 12,9 km/h (3 Bft) 95,74 %
09.02.2026 20:42 4,6 °C 3,9 °C 0,0 °C 86 % 1003,5 hPa 0,0 l/m² 0 min 0 min 0 W/m² 12,9 km/h (3 Bft) 95,74 %
09.02.2026 20:44 4,6 °C 3,9 °C 0,0 °C 86 % 1003,4 hPa 0,0 l/m² 0 min 0 min 0 W/m² 19,3 km/h (3 Bft) 97,87 %
09.02.2026 20:46 4,5 °C 3,9 °C 0,0 °C 87 % 1003,4 hPa 0,0 l/m² 0 min 0 min 0 W/m² 19,3 km/h (3 Bft) 95,74 %
09.02.2026 20:48 4,5 °C 3,9 °C 0,0 °C 87 % 1003,4 hPa 0,0 l/m² 0 min 0 min 0 W/m² 16,1 km/h (3 Bft) 95,74 %
09.02.2026 20:50 4,5 °C 3,9 °C 0,0 °C 87 % 1003,4 hPa 0,0 l/m² 0 min 0 min 0 W/m² 16,1 km/h (3 Bft) 95,74 %
09.02.2026 20:52 4,5 °C 3,9 °C 0,0 °C 87 % 1003,4 hPa 0,0 l/m² 0 min 0 min 0 W/m² 29,0 km/h (5 Bft) 91,49 %
09.02.2026 20:54 4,4 °C 3,9 °C 0,0 °C 87 % 1003,3 hPa 0,0 l/m² 0 min 0 min 0 W/m² 19,3 km/h (3 Bft) 95,74 %
09.02.2026 20:56 4,4 °C 3,9 °C 0,0 °C 87 % 1003,3 hPa 0,0 l/m² 0 min 0 min 0 W/m² 16,1 km/h (3 Bft) 97,83 %
09.02.2026 20:58 4,4 °C 3,9 °C 0,0 °C 87 % 1003,3 hPa 0,0 l/m² 0 min 0 min 0 W/m² 22,5 km/h (4 Bft) 95,74 %
09.02.2026 21:00 4,4 °C 3,9 °C 0,0 °C 87 % 1003,3 hPa 0,0 l/m² 0 min 0 min 0 W/m² 22,5 km/h (4 Bft) 95,74 %
09.02.2026 21:02 4,4 °C 3,9 °C 0,0 °C 87 % 1003,3 hPa 0,0 l/m² 0 min 0 min 0 W/m² 19,3 km/h (3 Bft) 97,87 %
09.02.2026 21:04 4,4 °C 3,9 °C 0,0 °C 87 % 1003,2 hPa 0,0 l/m² 0 min 0 min 0 W/m² 16,1 km/h (3 Bft) 97,87 %
09.02.2026 21:06 4,4 °C 3,9 °C 0,0 °C 87 % 1003,2 hPa 0,0 l/m² 0 min 0 min 0 W/m² 22,5 km/h (4 Bft) 91,49 %
09.02.2026 21:08 4,4 °C 3,9 °C 0,0 °C 87 % 1003,1 hPa 0,0 l/m² 0 min 0 min 0 W/m² 19,3 km/h (3 Bft) 97,92 %
09.02.2026 21:10 4,4 °C 3,9 °C 0,0 °C 87 % 1003,1 hPa 0,0 l/m² 0 min 0 min 0 W/m² 12,9 km/h (3 Bft) 97,87 %
09.02.2026 21:12 4,4 °C 3,9 °C 0,0 °C 87 % 1003,1 hPa 0,0 l/m² 0 min 0 min 0 W/m² 19,3 km/h (3 Bft) 95,74 %
09.02.2026 21:14 4,4 °C 3,9 °C 0,0 °C 87 % 1003,1 hPa 0,0 l/m² 0 min 0 min 0 W/m² 16,1 km/h (3 Bft) 97,87 %
09.02.2026 21:16 4,4 °C 3,9 °C 0,0 °C 87 % 1003,2 hPa 0,0 l/m² 0 min 0 min 0 W/m² 16,1 km/h (3 Bft) 95,74 %
09.02.2026 21:18 4,4 °C 3,9 °C 0,0 °C 87 % 1003,2 hPa 0,0 l/m² 0 min 0 min 0 W/m² 12,9 km/h (3 Bft) 97,83 %
09.02.2026 21:20 4,3 °C 3,9 °C 0,0 °C 87 % 1003,3 hPa 0,0 l/m² 0 min 0 min 0 W/m² 22,5 km/h (4 Bft) 97,87 %
09.02.2026 21:22 4,4 °C 3,9 °C 0,0 °C 87 % 1003,2 hPa 0,0 l/m² 0 min 0 min 0 W/m² 22,5 km/h (4 Bft) 100,00 %
09.02.2026 21:24 4,3 °C 3,9 °C 0,0 °C 87 % 1003,1 hPa 0,0 l/m² 0 min 0 min 0 W/m² 16,1 km/h (3 Bft) 100,00 %
09.02.2026 21:26 4,3 °C 3,9 °C 0,0 °C 87 % 1003,2 hPa 0,0 l/m² 0 min 0 min 0 W/m² 19,3 km/h (3 Bft) 100,00 %
09.02.2026 21:28 4,3 °C 3,9 °C 0,0 °C 87 % 1003,1 hPa 0,0 l/m² 0 min 0 min 0 W/m² 22,5 km/h (4 Bft) 100,00 %
09.02.2026 21:30 4,3 °C 3,9 °C 0,0 °C 87 % 1003,2 hPa 0,0 l/m² 0 min 0 min 0 W/m² 22,5 km/h (4 Bft) 100,00 %
09.02.2026 21:32 4,3 °C 3,9 °C 0,0 °C 87 % 1003,2 hPa 0,0 l/m² 0 min 0 min 0 W/m² 19,3 km/h (3 Bft) 97,87 %
09.02.2026 21:34 4,3 °C 3,3 °C 0,0 °C 87 % 1003,2 hPa 0,0 l/m² 0 min 0 min 0 W/m² 16,1 km/h (3 Bft) 100,00 %
09.02.2026 21:36 4,3 °C 3,3 °C 0,0 °C 87 % 1003,1 hPa 0,0 l/m² 0 min 0 min 0 W/m² 16,1 km/h (3 Bft) 97,87 %
09.02.2026 21:38 4,3 °C 3,3 °C 0,0 °C 87 % 1003,1 hPa 0,0 l/m² 0 min 0 min 0 W/m² 22,5 km/h (4 Bft) 100,00 %
09.02.2026 21:40 4,3 °C 3,3 °C 0,0 °C 87 % 1003,1 hPa 0,0 l/m² 0 min 0 min 0 W/m² 16,1 km/h (3 Bft) 100,00 %
09.02.2026 21:42 4,3 °C 3,3 °C 0,0 °C 87 % 1003,1 hPa 0,0 l/m² 0 min 0 min 0 W/m² 19,3 km/h (3 Bft) 100,00 %
09.02.2026 21:44 4,3 °C 3,3 °C 0,0 °C 87 % 1003,1 hPa 0,0 l/m² 0 min 0 min 0 W/m² 22,5 km/h (4 Bft) 100,00 %
09.02.2026 21:46 4,3 °C 3,3 °C 0,0 °C 87 % 1003,1 hPa 0,0 l/m² 0 min 0 min 0 W/m² 12,9 km/h (3 Bft) 100,00 %
09.02.2026 21:48 4,3 °C 3,3 °C 0,0 °C 87 % 1003,1 hPa 0,0 l/m² 0 min 0 min 0 W/m² 16,1 km/h (3 Bft) 100,00 %
09.02.2026 21:50 4,2 °C 3,3 °C 0,0 °C 87 % 1003,1 hPa 0,0 l/m² 0 min 0 min 0 W/m² 16,1 km/h (3 Bft) 100,00 %
09.02.2026 21:52 4,2 °C 3,3 °C 0,0 °C 87 % 1003,0 hPa 0,0 l/m² 0 min 0 min 0 W/m² 19,3 km/h (3 Bft) 97,87 %
09.02.2026 21:54 4,2 °C 3,3 °C 0,0 °C 87 % 1003,0 hPa 0,0 l/m² 0 min 0 min 0 W/m² 16,1 km/h (3 Bft) 100,00 %
09.02.2026 21:56 4,2 °C 3,3 °C 0,0 °C 87 % 1003,0 hPa 0,0 l/m² 0 min 0 min 0 W/m² 22,5 km/h (4 Bft) 100,00 %
09.02.2026 21:58 4,2 °C 3,3 °C 0,0 °C 87 % 1003,0 hPa 0,0 l/m² 0 min 0 min 0 W/m² 25,7 km/h (4 Bft) 100,00 %
09.02.2026 22:00 4,2 °C 3,3 °C 0,0 °C 87 % 1003,0 hPa 0,0 l/m² 0 min 0 min 0 W/m² 22,5 km/h (4 Bft) 100,00 %
09.02.2026 22:02 4,2 °C 3,3 °C 0,0 °C 87 % 1003,0 hPa 0,0 l/m² 0 min 0 min 0 W/m² 25,7 km/h (4 Bft) 100,00 %
09.02.2026 22:04 4,2 °C 3,3 °C 0,0 °C 87 % 1003,0 hPa 0,0 l/m² 0 min 0 min 0 W/m² 16,1 km/h (3 Bft) 97,87 %
09.02.2026 22:06 4,2 °C 3,3 °C 0,0 °C 87 % 1003,0 hPa 0,0 l/m² 0 min 0 min 0 W/m² 19,3 km/h (3 Bft) 100,00 %
09.02.2026 22:08 4,2 °C 3,3 °C 0,0 °C 87 % 1002,9 hPa 0,0 l/m² 0 min 0 min 0 W/m² 16,1 km/h (3 Bft) 95,83 %
09.02.2026 22:10 4,2 °C 3,3 °C 0,0 °C 88 % 1002,9 hPa 0,0 l/m² 0 min 0 min 0 W/m² 16,1 km/h (3 Bft) 97,14 %
09.02.2026 22:12 4,1 °C 3,3 °C 0,0 °C 88 % 1002,9 hPa 0,0 l/m² 0 min 0 min 0 W/m² 19,3 km/h (3 Bft) 100,00 %
09.02.2026 22:14 4,1 °C 3,3 °C 0,0 °C 88 % 1002,8 hPa 0,0 l/m² 0 min 0 min 0 W/m² 25,7 km/h (4 Bft) 93,62 %
09.02.2026 22:16 4,1 °C 3,3 °C 0,0 °C 88 % 1002,8 hPa 0,0 l/m² 0 min 0 min 0 W/m² 12,9 km/h (3 Bft) 97,87 %
09.02.2026 22:18 4,1 °C 3,3 °C 0,0 °C 88 % 1002,8 hPa 0,0 l/m² 0 min 0 min 0 W/m² 22,5 km/h (4 Bft) 97,87 %
09.02.2026 22:20 4,1 °C 3,3 °C 0,0 °C 88 % 1002,8 hPa 0,0 l/m² 0 min 0 min 0 W/m² 12,9 km/h (3 Bft) 97,87 %
09.02.2026 22:22 4,1 °C 3,3 °C 0,0 °C 88 % 1002,7 hPa 0,0 l/m² 0 min 0 min 0 W/m² 16,1 km/h (3 Bft) 97,87 %
09.02.2026 22:24 4,1 °C 3,3 °C 0,0 °C 88 % 1002,7 hPa 0,0 l/m² 0 min 0 min 0 W/m² 22,5 km/h (4 Bft) 97,87 %
09.02.2026 22:26 4,1 °C 3,3 °C 0,0 °C 88 % 1002,7 hPa 0,0 l/m² 0 min 0 min 0 W/m² 19,3 km/h (3 Bft) 95,74 %
09.02.2026 22:28 4,1 °C 3,3 °C 0,0 °C 88 % 1002,6 hPa 0,0 l/m² 0 min 0 min 0 W/m² 12,9 km/h (3 Bft) 97,87 %
09.02.2026 22:30 4,1 °C 3,3 °C -0,6 °C 88 % 1002,7 hPa 0,0 l/m² 0 min 0 min 0 W/m² 16,1 km/h (3 Bft) 97,87 %
09.02.2026 22:32 4,1 °C 3,3 °C 0,0 °C 88 % 1002,7 hPa 0,0 l/m² 0 min 0 min 0 W/m² 19,3 km/h (3 Bft) 97,83 %
09.02.2026 22:34 4,1 °C 3,3 °C -0,6 °C 88 % 1002,7 hPa 0,0 l/m² 0 min 0 min 0 W/m² 19,3 km/h (3 Bft) 97,87 %
09.02.2026 22:36 4,1 °C 3,3 °C -0,6 °C 88 % 1002,6 hPa 0,0 l/m² 0 min 0 min 0 W/m² 16,1 km/h (3 Bft) 95,74 %
09.02.2026 22:38 4,1 °C 3,3 °C -0,6 °C 88 % 1002,6 hPa 0,0 l/m² 0 min 0 min 0 W/m² 19,3 km/h (3 Bft) 95,74 %
09.02.2026 22:40 4,1 °C 3,3 °C -0,6 °C 88 % 1002,6 hPa 0,0 l/m² 0 min 0 min 0 W/m² 19,3 km/h (3 Bft) 95,74 %
09.02.2026 22:42 4,1 °C 3,3 °C -0,6 °C 88 % 1002,6 hPa 0,0 l/m² 0 min 0 min 0 W/m² 16,1 km/h (3 Bft) 95,74 %
09.02.2026 22:44 4,1 °C 3,3 °C -0,6 °C 88 % 1002,6 hPa 0,0 l/m² 0 min 0 min 0 W/m² 16,1 km/h (3 Bft) 95,74 %
09.02.2026 22:46 4,1 °C 3,3 °C -0,6 °C 88 % 1002,6 hPa 0,0 l/m² 0 min 0 min 0 W/m² 16,1 km/h (3 Bft) 91,49 %
09.02.2026 22:48 4,1 °C 3,3 °C -0,6 °C 88 % 1002,6 hPa 0,0 l/m² 0 min 0 min 0 W/m² 16,1 km/h (3 Bft) 95,74 %
09.02.2026 22:50 4,0 °C 3,3 °C -0,6 °C 88 % 1002,6 hPa 0,0 l/m² 0 min 0 min 0 W/m² 19,3 km/h (3 Bft) 96,00 %
09.02.2026 22:52 4,0 °C 3,3 °C -0,6 °C 88 % 1002,5 hPa 0,0 l/m² 0 min 0 min 0 W/m² 12,9 km/h (3 Bft) 95,65 %
09.02.2026 22:54 4,0 °C 3,3 °C -0,6 °C 88 % 1002,5 hPa 0,0 l/m² 0 min 0 min 0 W/m² 16,1 km/h (3 Bft) 97,96 %
09.02.2026 22:56 4,0 °C 3,3 °C -0,6 °C 88 % 1002,5 hPa 0,0 l/m² 0 min 0 min 0 W/m² 16,1 km/h (3 Bft) 94,29 %
09.02.2026 22:58 4,0 °C 3,3 °C -0,6 °C 88 % 1002,5 hPa 0,0 l/m² 0 min 0 min 0 W/m² 16,1 km/h (3 Bft) 88,89 %
09.02.2026 23:00 4,0 °C 3,3 °C -0,6 °C 88 % 1002,4 hPa 0,0 l/m² 0 min 0 min 0 W/m² 22,5 km/h (4 Bft) 95,74 %
09.02.2026 23:02 4,0 °C 3,3 °C -0,6 °C 88 % 1002,5 hPa 0,0 l/m² 0 min 0 min 0 W/m² 16,1 km/h (3 Bft) 95,74 %
09.02.2026 23:04 4,0 °C 3,3 °C -0,6 °C 88 % 1002,4 hPa 0,0 l/m² 0 min 0 min 0 W/m² 16,1 km/h (3 Bft) 95,24 %
09.02.2026 23:06 3,9 °C 3,3 °C -0,6 °C 89 % 1002,4 hPa 0,0 l/m² 0 min 0 min 0 W/m² 12,9 km/h (3 Bft) 95,74 %
09.02.2026 23:08 3,9 °C 3,3 °C -0,6 °C 89 % 1002,3 hPa 0,0 l/m² 0 min 0 min 0 W/m² 12,9 km/h (3 Bft) 96,23 %
09.02.2026 23:10 3,9 °C 3,3 °C -0,6 °C 89 % 1002,3 hPa 0,0 l/m² 0 min 0 min 0 W/m² 16,1 km/h (3 Bft) 93,62 %
09.02.2026 23:12 3,9 °C 3,3 °C -0,6 °C 89 % 1002,3 hPa 0,0 l/m² 0 min 0 min 0 W/m² 12,9 km/h (3 Bft) 95,74 %
09.02.2026 23:14 3,9 °C 3,3 °C -0,6 °C 89 % 1002,4 hPa 0,0 l/m² 0 min 0 min 0 W/m² 19,3 km/h (3 Bft) 95,74 %
09.02.2026 23:16 3,9 °C 3,3 °C -0,6 °C 89 % 1002,4 hPa 0,0 l/m² 0 min 0 min 0 W/m² 16,1 km/h (3 Bft) 93,62 %
09.02.2026 23:18 3,9 °C 3,3 °C -0,6 °C 89 % 1002,4 hPa 0,0 l/m² 0 min 0 min 0 W/m² 12,9 km/h (3 Bft) 95,74 %
09.02.2026 23:20 3,9 °C 3,3 °C -0,6 °C 89 % 1002,4 hPa 0,0 l/m² 0 min 0 min 0 W/m² 22,5 km/h (4 Bft) 93,48 %
09.02.2026 23:22 3,8 °C 3,3 °C -0,6 °C 89 % 1002,3 hPa 0,0 l/m² 0 min 0 min 0 W/m² 12,9 km/h (3 Bft) 91,49 %
09.02.2026 23:24 3,8 °C 3,3 °C -0,6 °C 89 % 1002,3 hPa 0,0 l/m² 0 min 0 min 0 W/m² 22,5 km/h (4 Bft) 93,62 %
09.02.2026 23:26 3,8 °C 3,3 °C -0,6 °C 89 % 1002,2 hPa 0,0 l/m² 0 min 0 min 0 W/m² 19,3 km/h (3 Bft) 95,74 %
09.02.2026 23:28 3,8 °C 3,3 °C -0,6 °C 89 % 1002,3 hPa 0,0 l/m² 0 min 0 min 0 W/m² 16,1 km/h (3 Bft) 93,62 %
09.02.2026 23:30 3,8 °C 3,3 °C -0,6 °C 89 % 1002,3 hPa 0,0 l/m² 0 min 0 min 0 W/m² 35,4 km/h (5 Bft) 97,87 %
09.02.2026 23:32 3,8 °C 3,3 °C -0,6 °C 89 % 1002,3 hPa 0,0 l/m² 0 min 0 min 0 W/m² 16,1 km/h (3 Bft) 95,74 %
09.02.2026 23:34 3,8 °C 3,3 °C -0,6 °C 89 % 1002,3 hPa 0,0 l/m² 0 min 0 min 0 W/m² 22,5 km/h (4 Bft) 95,74 %
09.02.2026 23:36 3,8 °C 2,8 °C -0,6 °C 89 % 1002,2 hPa 0,0 l/m² 0 min 0 min 0 W/m² 16,1 km/h (3 Bft) 91,49 %
09.02.2026 23:38 3,8 °C 2,8 °C -0,6 °C 89 % 1002,2 hPa 0,0 l/m² 0 min 0 min 0 W/m² 22,5 km/h (4 Bft) 97,87 %
09.02.2026 23:40 3,8 °C 2,8 °C -0,6 °C 89 % 1002,2 hPa 0,0 l/m² 0 min 0 min 0 W/m² 16,1 km/h (3 Bft) 95,65 %
09.02.2026 23:42 3,8 °C 2,8 °C -0,6 °C 89 % 1002,2 hPa 0,0 l/m² 0 min 0 min 0 W/m² 19,3 km/h (3 Bft) 97,87 %
09.02.2026 23:44 3,8 °C 2,8 °C -0,6 °C 89 % 1002,1 hPa 0,0 l/m² 0 min 0 min 0 W/m² 22,5 km/h (4 Bft) 95,74 %
09.02.2026 23:46 3,8 °C 2,8 °C -0,6 °C 89 % 1002,1 hPa 0,0 l/m² 0 min 0 min 0 W/m² 19,3 km/h (3 Bft) 95,74 %
09.02.2026 23:48 3,8 °C 2,8 °C -0,6 °C 90 % 1002,1 hPa 0,0 l/m² 0 min 0 min 0 W/m² 16,1 km/h (3 Bft) 97,87 %
09.02.2026 23:50 3,7 °C 2,8 °C -0,6 °C 90 % 1002,0 hPa 0,0 l/m² 0 min 0 min 0 W/m² 25,7 km/h (4 Bft) 95,74 %
09.02.2026 23:52 3,7 °C 2,8 °C -0,6 °C 90 % 1002,0 hPa 0,0 l/m² 0 min 0 min 0 W/m² 16,1 km/h (3 Bft) 97,87 %
09.02.2026 23:54 3,7 °C 2,8 °C -0,6 °C 90 % 1002,0 hPa 0,0 l/m² 0 min 0 min 0 W/m² 16,1 km/h (3 Bft) 100,00 %
09.02.2026 23:56 3,7 °C 2,8 °C -0,6 °C 90 % 1002,0 hPa 0,0 l/m² 0 min 0 min 0 W/m² 19,3 km/h (3 Bft) 100,00 %
09.02.2026 23:58 3,7 °C 2,8 °C -0,6 °C 90 % 1001,9 hPa 0,0 l/m² 0 min 0 min 0 W/m² 22,5 km/h (4 Bft) 97,87 %
_ Min-Zeit 06:22 06:16 06:02 13:46 23:58 - - - - 00:44 08:28
Minimum _ 0,6 °C -1,1 °C -3,3 °C 77 % 1001,9 hPa - - - - 0,0 km/h (0 Bft) 47,73 %
_ Max-Zeit 13:44 13:34 12:26 08:36 00:00 09:14 12:12 00:00 12:26 13:14 00:00
Maximum _ 8,3 °C 12,2 °C 4,4 °C 98 % 1009,3 hPa 0,2 l/m² 4 min 0 min 415 W/m² 35,4 km/h
O-SO (5 Bft)
100,00 %
Durchschnitt _ 4,0 °C 4,1 °C 0,1 °C 90 % 1006,1 hPa #0,2 l/m² #5:32 h #0 min. 161 W/m² 14,1 km/h (3 Bft) 97,13 %
© 2026 W. Hausmann